KAY53 EDDS-TXKF

Flight info

Callsign KAY53
Flight time 8h 56m
Altitude 39000
Route TEDGO1K TEDGO N869 NATOR DCT TUFTA DCT TIS DCT SECHE DCT URUNA P181 SSN M190 LASKU DCT RIMTU DCT RIPEL DCT ARMED/M080F390 DCT 43N017W 43N021W 43N025W 43N029W 43N033W 43N037W 41N041W 39N047W 37N053W 35N059W DCT BALOO MOMOM1
Aircraft A319/M-SDE3FGHIRWY/LB1

Departure

Time 2026-04-15 12:56
Airport Stuttgart Airport (EDDS)

Arrival

Time 2026-04-15 21:52
Airport L.F. Wade International Airport (TXKF)
Time Latitude Longitude Altitude Speed Heading
2026-04-15 12:47 48.69101 9.20693 1282 ft 0 kts 163°
2026-04-15 12:52 48.69096 9.20695 1282 ft 4 kts 163°
2026-04-15 12:52 48.69042 9.20719 1281 ft 13 kts 164°
2026-04-15 12:52 48.68964 9.20692 1278 ft 13 kts 246°
2026-04-15 12:53 48.68936 9.20548 1282 ft 15 kts 254°
2026-04-15 12:53 48.68904 9.20381 1286 ft 17 kts 254°
2026-04-15 12:53 48.68874 9.20219 1290 ft 15 kts 254°
2026-04-15 12:53 48.68845 9.20067 1294 ft 14 kts 254°
2026-04-15 12:54 48.68784 9.19969 1294 ft 15 kts 193°
2026-04-15 12:54 48.68671 9.19992 1288 ft 19 kts 164°
2026-04-15 12:54 48.68591 9.20106 1283 ft 12 kts 86°
2026-04-15 12:54 48.68594 9.20124 1282 ft 0 kts 75°
2026-04-15 12:55 48.68602 9.20165 1281 ft 20 kts 73°
2026-04-15 12:55 48.68733 9.20851 1274 ft 112 kts 74°
2026-04-15 12:55 48.69018 9.22346 1309 ft 174 kts 73°
2026-04-15 12:56 48.69358 9.24132 2140 ft 176 kts 74°
2026-04-15 12:56 48.69692 9.25898 3178 ft 173 kts 74°
2026-04-15 12:56 48.69866 9.27665 3989 ft 170 kts 95°
2026-04-15 12:56 48.69496 9.29363 4618 ft 177 kts 122°
2026-04-15 12:57 48.68652 9.30877 4972 ft 199 kts 132°
2026-04-15 12:57 48.67477 9.32129 5444 ft 216 kts 157°
2026-04-15 12:57 48.65975 9.32498 6170 ft 225 kts 183°
2026-04-15 12:57 48.64467 9.31803 6979 ft 231 kts 211°
2026-04-15 12:58 48.63326 9.30131 7777 ft 236 kts 237°
2026-04-15 12:58 48.62530 9.27939 8610 ft 238 kts 242°
2026-04-15 12:58 48.61729 9.25732 9481 ft 240 kts 236°
2026-04-15 12:58 48.60768 9.23660 10352 ft 241 kts 234°
2026-04-15 12:59 48.58808 9.19472 11922 ft 247 kts 234°
2026-04-15 12:59 48.57805 9.17341 12699 ft 251 kts 234°
2026-04-15 12:59 48.56785 9.15180 13487 ft 254 kts 234°
2026-04-15 13:00 48.55752 9.12992 14238 ft 258 kts 234°
2026-04-15 13:00 48.54705 9.10775 14925 ft 261 kts 235°
2026-04-15 13:00 48.53646 9.08535 15624 ft 264 kts 235°
2026-04-15 13:00 48.52571 9.06264 16337 ft 267 kts 236°
2026-04-15 13:01 48.51488 9.03970 17037 ft 270 kts 235°
2026-04-15 13:01 48.50396 9.01658 17746 ft 273 kts 235°
2026-04-15 13:01 48.49287 8.99315 18460 ft 275 kts 235°
2026-04-15 13:01 48.48167 8.96956 19075 ft 278 kts 235°
2026-04-15 13:02 48.47034 8.94577 19685 ft 281 kts 235°
2026-04-15 13:02 48.45887 8.92173 20293 ft 284 kts 236°
2026-04-15 13:02 48.44730 8.89745 20891 ft 287 kts 236°
2026-04-15 13:02 48.43554 8.87282 21473 ft 291 kts 236°
2026-04-15 13:03 48.42369 8.84803 22058 ft 294 kts 236°
2026-04-15 13:03 48.41166 8.82291 22647 ft 297 kts 236°
2026-04-15 13:03 48.39949 8.79742 23230 ft 301 kts 236°
2026-04-15 13:03 48.38717 8.77166 23806 ft 305 kts 236°
2026-04-15 13:04 48.37473 8.74566 24281 ft 308 kts 236°
2026-04-15 13:04 48.36228 8.71967 24756 ft 312 kts 237°
2026-04-15 13:04 48.34956 8.69309 25223 ft 315 kts 237°
2026-04-15 13:04 48.33669 8.66620 25693 ft 318 kts 237°
2026-04-15 13:05 48.32369 8.63907 26160 ft 322 kts 237°
2026-04-15 13:05 48.31048 8.61159 26598 ft 326 kts 237°
2026-04-15 13:05 48.29713 8.58390 27062 ft 329 kts 237°
2026-04-15 13:05 48.28366 8.55598 27520 ft 332 kts 237°
2026-04-15 13:06 48.27006 8.52779 27989 ft 335 kts 238°
2026-04-15 13:06 48.25633 8.49931 28433 ft 338 kts 238°
2026-04-15 13:06 48.24246 8.47060 28876 ft 342 kts 238°
2026-04-15 13:06 48.22846 8.44163 29320 ft 345 kts 238°
2026-04-15 13:07 48.21430 8.41241 29738 ft 348 kts 238°
2026-04-15 13:07 48.19998 8.38287 30174 ft 352 kts 238°
2026-04-15 13:07 48.18549 8.35304 30554 ft 355 kts 238°
2026-04-15 13:07 48.17084 8.32308 30912 ft 358 kts 237°
2026-04-15 13:08 48.15527 8.29368 31285 ft 362 kts 234°
2026-04-15 13:08 48.13903 8.26523 31644 ft 366 kts 233°
2026-04-15 13:08 48.12183 8.23627 31986 ft 369 kts 232°
2026-04-15 13:08 48.10478 8.20795 32346 ft 372 kts 232°
2026-04-15 13:09 48.08742 8.17904 32717 ft 375 kts 232°
2026-04-15 13:09 48.07006 8.14986 33064 ft 378 kts 233°
2026-04-15 13:09 48.05260 8.12025 33429 ft 380 kts 233°
2026-04-15 13:09 48.03506 8.09034 33796 ft 383 kts 233°
2026-04-15 13:10 48.01747 8.06031 34118 ft 386 kts 233°
2026-04-15 13:10 47.99972 8.03000 34426 ft 388 kts 233°
2026-04-15 13:10 47.98188 7.99962 34724 ft 391 kts 233°
2026-04-15 13:10 47.96387 7.96901 34987 ft 394 kts 233°
2026-04-15 13:11 47.94569 7.93814 35249 ft 396 kts 233°
2026-04-15 13:11 47.92745 7.90719 35496 ft 399 kts 233°
2026-04-15 13:11 47.90903 7.87604 35772 ft 401 kts 233°
2026-04-15 13:11 47.89046 7.84467 36033 ft 404 kts 233°
2026-04-15 13:12 47.87210 7.81369 36258 ft 406 kts 233°
2026-04-15 13:12 47.85335 7.78205 36529 ft 408 kts 233°
2026-04-15 13:12 47.83452 7.75034 36793 ft 410 kts 233°
2026-04-15 13:12 47.81555 7.71843 37039 ft 412 kts 232°
2026-04-15 13:13 47.79646 7.68636 37258 ft 415 kts 232°
2026-04-15 13:13 47.77728 7.65417 37496 ft 417 kts 232°
2026-04-15 13:13 47.75797 7.62183 37728 ft 419 kts 232°
2026-04-15 13:13 47.73853 7.58937 37921 ft 422 kts 232°
2026-04-15 13:14 47.71905 7.55688 38192 ft 421 kts 232°
2026-04-15 13:14 47.69948 7.52423 38443 ft 423 kts 232°
2026-04-15 13:14 47.67989 7.49156 38663 ft 425 kts 232°
2026-04-15 13:14 47.66023 7.45877 38874 ft 426 kts 232°
2026-04-15 13:15 47.64051 7.42590 39047 ft 428 kts 232°
2026-04-15 13:15 47.62070 7.39287 39223 ft 429 kts 232°
2026-04-15 13:15 47.60085 7.35984 39385 ft 430 kts 232°
2026-04-15 13:15 47.58087 7.32663 39537 ft 432 kts 232°
2026-04-15 13:16 47.56078 7.29337 39678 ft 434 kts 232°
2026-04-15 13:16 47.54058 7.26003 39825 ft 436 kts 231°
2026-04-15 13:16 47.52030 7.22666 39980 ft 437 kts 231°
2026-04-15 13:16 47.49996 7.19320 40140 ft 438 kts 231°
2026-04-15 13:17 47.47958 7.15961 40296 ft 439 kts 231°
2026-04-15 13:17 47.45920 7.12606 40453 ft 440 kts 231°
2026-04-15 13:17 47.43866 7.09230 40589 ft 442 kts 231°
2026-04-15 13:17 47.41814 7.05862 40746 ft 442 kts 231°
2026-04-15 13:18 47.39755 7.02485 40912 ft 442 kts 231°
2026-04-15 13:18 47.37692 6.99097 41057 ft 443 kts 231°
2026-04-15 13:18 47.35632 6.95720 41190 ft 444 kts 231°
2026-04-15 13:18 47.33555 6.92319 41215 ft 448 kts 231°
2026-04-15 13:19 47.29366 6.85492 41220 ft 454 kts 231°
2026-04-15 13:19 47.25111 6.78597 41211 ft 455 kts 231°
2026-04-15 13:20 47.20854 6.71697 41201 ft 455 kts 231°
2026-04-15 13:20 47.16596 6.64807 41194 ft 456 kts 231°
2026-04-15 13:21 47.12320 6.57910 41192 ft 456 kts 230°
2026-04-15 13:21 47.08045 6.51039 41211 ft 456 kts 230°
2026-04-15 13:22 47.03771 6.44181 41215 ft 455 kts 230°
2026-04-15 13:22 47.00212 6.38482 41217 ft 455 kts 230°
2026-04-15 13:23 46.95931 6.31642 41212 ft 456 kts 230°
2026-04-15 13:23 46.91639 6.24809 41214 ft 456 kts 230°
2026-04-15 13:24 46.87348 6.17986 41216 ft 456 kts 230°
2026-04-15 13:24 46.83055 6.11161 41207 ft 456 kts 230°
2026-04-15 13:25 46.78757 6.04356 41213 ft 455 kts 230°
2026-04-15 13:25 46.74452 5.97573 41225 ft 455 kts 230°
2026-04-15 13:26 46.70153 5.90815 41227 ft 455 kts 230°
2026-04-15 13:26 46.65848 5.84067 41230 ft 455 kts 230°
2026-04-15 13:27 46.61542 5.77332 41234 ft 454 kts 230°
2026-04-15 13:27 46.57267 5.70650 41234 ft 454 kts 230°
2026-04-15 13:28 46.52962 5.63930 41227 ft 454 kts 230°
2026-04-15 13:28 46.48657 5.57240 41236 ft 453 kts 230°
2026-04-15 13:29 46.44351 5.50574 41237 ft 452 kts 230°
2026-04-15 13:29 46.40131 5.43827 41224 ft 449 kts 237°
2026-04-15 13:30 46.37234 5.35929 41227 ft 442 kts 252°
2026-04-15 13:30 46.35077 5.27632 41229 ft 443 kts 252°
2026-04-15 13:31 46.32888 5.19298 41228 ft 443 kts 252°
2026-04-15 13:31 46.30689 5.10972 41233 ft 442 kts 252°
2026-04-15 13:32 46.28479 5.02674 41236 ft 441 kts 251°
2026-04-15 13:32 46.26277 4.94400 41234 ft 441 kts 252°
2026-04-15 13:33 46.24082 4.86135 41227 ft 441 kts 252°
2026-04-15 13:33 46.21872 4.77875 41223 ft 441 kts 251°
2026-04-15 13:34 46.19657 4.69626 41235 ft 440 kts 251°
2026-04-15 13:34 46.17441 4.61401 41238 ft 439 kts 251°
2026-04-15 13:35 46.15243 4.53261 41237 ft 438 kts 251°
2026-04-15 13:35 46.13033 4.45088 41235 ft 438 kts 251°
2026-04-15 13:36 46.10809 4.36919 41229 ft 437 kts 251°
2026-04-15 13:36 46.08580 4.28772 41236 ft 436 kts 251°
2026-04-15 13:37 46.06356 4.20661 41237 ft 435 kts 251°
2026-04-15 13:37 46.04130 4.12578 41237 ft 434 kts 251°
2026-04-15 13:38 46.01903 4.04499 41240 ft 434 kts 251°
2026-04-15 13:38 45.99674 3.96429 41233 ft 433 kts 251°
2026-04-15 13:39 45.97443 3.88388 41237 ft 433 kts 250°
2026-04-15 13:39 45.95208 3.80371 41240 ft 432 kts 250°
2026-04-15 13:40 45.92967 3.72369 41233 ft 431 kts 250°
2026-04-15 13:40 45.90740 3.64446 41219 ft 431 kts 250°
2026-04-15 13:41 45.88477 3.56488 41220 ft 431 kts 247°
2026-04-15 13:41 45.85367 3.49094 41217 ft 433 kts 240°
2026-04-15 13:42 45.82088 3.41852 41215 ft 433 kts 240°
2026-04-15 13:42 45.78809 3.34614 41215 ft 434 kts 240°
2026-04-15 13:43 45.75519 3.27358 41215 ft 434 kts 239°
2026-04-15 13:43 45.72226 3.20122 41204 ft 434 kts 240°
2026-04-15 13:44 45.68921 3.12877 41212 ft 435 kts 239°
2026-04-15 13:44 45.65616 3.05648 41226 ft 434 kts 239°
2026-04-15 13:45 45.62306 2.98428 41230 ft 433 kts 239°
2026-04-15 13:47 45.49068 2.69768 41219 ft 433 kts 239°
2026-04-15 13:47 45.45768 2.62656 41226 ft 432 kts 239°
2026-04-15 13:48 45.42458 2.55532 41224 ft 431 kts 239°
2026-04-15 13:48 45.39138 2.48419 41219 ft 431 kts 239°
2026-04-15 13:49 45.35818 2.41330 41205 ft 430 kts 239°
2026-04-15 13:49 45.32491 2.34235 41208 ft 431 kts 239°
2026-04-15 13:50 45.29166 2.27164 41223 ft 430 kts 238°
2026-04-15 13:50 45.25836 2.20117 41224 ft 429 kts 238°
2026-04-15 13:51 45.22534 2.13142 41225 ft 428 kts 238°
2026-04-15 13:51 45.19219 2.06131 41229 ft 428 kts 238°
2026-04-15 13:52 45.15895 1.99133 41221 ft 427 kts 238°
2026-04-15 13:52 45.12567 1.92152 41221 ft 428 kts 238°
2026-04-15 13:53 45.09235 1.85175 41237 ft 427 kts 238°
2026-04-15 13:53 45.05936 1.78277 41243 ft 426 kts 238°
2026-04-15 13:54 45.02615 1.71342 41243 ft 425 kts 238°
2026-04-15 13:54 44.99292 1.64429 41229 ft 425 kts 238°
2026-04-15 13:55 44.95971 1.57534 41220 ft 425 kts 238°
2026-04-15 13:55 44.92646 1.50655 41233 ft 425 kts 238°
2026-04-15 13:56 44.89313 1.43778 41237 ft 423 kts 238°
2026-04-15 13:56 44.85994 1.36933 41236 ft 422 kts 238°
2026-04-15 13:57 44.82678 1.30123 41234 ft 421 kts 238°
2026-04-15 13:57 44.79360 1.23321 41233 ft 421 kts 238°
2026-04-15 13:58 44.76068 1.16579 41234 ft 420 kts 238°
2026-04-15 13:58 44.72752 1.09816 41242 ft 420 kts 238°
2026-04-15 13:59 44.69437 1.03075 41240 ft 418 kts 238°
2026-04-15 13:59 44.66130 0.96363 41238 ft 417 kts 238°
2026-04-15 14:00 44.62829 0.89675 41239 ft 417 kts 238°
2026-04-15 14:00 44.59526 0.82994 41228 ft 416 kts 238°
2026-04-15 14:01 44.54566 0.72975 41241 ft 416 kts 238°
2026-04-15 14:02 44.51259 0.66325 41240 ft 415 kts 238°
2026-04-15 14:02 44.47953 0.59694 41235 ft 415 kts 238°
2026-04-15 14:03 44.44660 0.53128 41233 ft 414 kts 237°
2026-04-15 14:03 44.41412 0.46479 41214 ft 413 kts 239°
2026-04-15 14:04 44.38314 0.39697 41219 ft 414 kts 240°
2026-04-15 14:04 44.35231 0.32914 41234 ft 413 kts 240°
2026-04-15 14:05 44.32107 0.26181 41239 ft 413 kts 239°
2026-04-15 14:05 44.28966 0.19478 41239 ft 412 kts 239°
2026-04-15 14:06 44.25827 0.12783 41236 ft 412 kts 239°
2026-04-15 14:06 44.22719 0.06133 41235 ft 412 kts 239°
2026-04-15 14:07 44.19590 -0.00540 41232 ft 412 kts 239°
2026-04-15 14:07 44.16450 -0.07210 41237 ft 411 kts 239°
2026-04-15 14:08 44.13311 -0.13861 41238 ft 410 kts 239°
2026-04-15 14:08 44.10167 -0.20486 41239 ft 410 kts 239°
2026-04-15 14:09 44.07016 -0.27109 41241 ft 410 kts 239°
2026-04-15 14:09 44.03883 -0.33719 41243 ft 409 kts 239°
2026-04-15 14:10 44.00768 -0.40287 41230 ft 410 kts 239°
2026-04-15 14:10 43.97617 -0.46881 41235 ft 410 kts 239°
2026-04-15 14:11 43.94450 -0.53475 41238 ft 410 kts 239°
2026-04-15 14:11 43.91283 -0.60070 41236 ft 410 kts 239°
2026-04-15 14:12 43.88124 -0.66665 41243 ft 411 kts 239°
2026-04-15 14:12 43.84957 -0.73251 41242 ft 411 kts 239°
2026-04-15 14:13 43.81781 -0.79828 41231 ft 411 kts 239°
2026-04-15 14:13 43.79135 -0.85286 41237 ft 410 kts 239°
2026-04-15 14:14 43.75444 -0.92905 41239 ft 410 kts 239°
2026-04-15 14:14 43.72264 -0.99451 41246 ft 410 kts 239°
2026-04-15 14:15 43.69598 -1.04926 41244 ft 409 kts 239°
2026-04-15 14:15 43.66431 -1.11410 41245 ft 409 kts 239°
2026-04-15 14:16 43.63240 -1.17931 41252 ft 409 kts 239°
2026-04-15 14:16 43.60052 -1.24430 41235 ft 408 kts 239°
2026-04-15 14:17 43.56863 -1.30917 41237 ft 408 kts 239°
2026-04-15 14:17 43.53676 -1.37393 41240 ft 408 kts 239°
2026-04-15 14:18 43.50486 -1.43862 41245 ft 408 kts 238°
2026-04-15 14:18 43.47307 -1.50281 41245 ft 408 kts 238°
2026-04-15 14:19 43.44104 -1.56736 41247 ft 408 kts 238°
2026-04-15 14:19 43.40912 -1.63166 41229 ft 407 kts 238°
2026-04-15 14:20 43.37713 -1.69592 41267 ft 407 kts 238°
2026-04-15 14:20 43.34519 -1.76012 41262 ft 407 kts 239°
2026-04-15 14:21 43.31853 -1.82789 41270 ft 402 kts 254°
2026-04-15 14:21 43.31109 -1.90343 41248 ft 401 kts 269°
2026-04-15 14:22 43.31106 -1.98000 41251 ft 401 kts 269°
2026-04-15 14:22 43.31079 -2.05597 41252 ft 400 kts 269°
2026-04-15 14:23 43.31042 -2.13238 41252 ft 400 kts 268°
2026-04-15 14:23 43.31003 -2.20887 41247 ft 400 kts 269°
2026-04-15 14:24 43.30968 -2.28532 41250 ft 400 kts 268°
2026-04-15 14:24 43.30915 -2.36165 41264 ft 400 kts 268°
2026-04-15 14:25 43.30856 -2.43796 41258 ft 399 kts 268°
2026-04-15 14:25 43.30806 -2.51412 41256 ft 399 kts 268°
2026-04-15 14:26 43.30756 -2.58992 41257 ft 399 kts 268°
2026-04-15 14:26 43.30690 -2.66601 41253 ft 399 kts 268°
2026-04-15 14:27 43.30614 -2.74205 41260 ft 398 kts 268°
2026-04-15 14:27 43.30540 -2.81794 41275 ft 397 kts 268°
2026-04-15 14:28 43.30463 -2.89388 41274 ft 397 kts 268°
2026-04-15 14:28 43.31079 -2.96936 41273 ft 400 kts 279°
2026-04-15 14:29 43.32214 -3.04407 41274 ft 400 kts 279°
2026-04-15 14:29 43.33344 -3.11892 41281 ft 400 kts 278°
2026-04-15 14:30 43.34455 -3.19371 41270 ft 400 kts 278°
2026-04-15 14:30 43.35555 -3.26803 41272 ft 400 kts 278°
2026-04-15 14:31 43.36667 -3.34293 41278 ft 400 kts 278°
2026-04-15 14:31 43.37793 -3.41769 41280 ft 400 kts 279°
2026-04-15 14:32 43.38927 -3.49243 41273 ft 397 kts 278°
2026-04-15 14:32 43.40042 -3.56690 41269 ft 397 kts 278°
2026-04-15 14:33 43.41144 -3.64139 41280 ft 398 kts 278°
2026-04-15 14:33 43.42246 -3.71604 41293 ft 398 kts 278°
2026-04-15 14:34 43.43343 -3.79018 41272 ft 398 kts 278°
2026-04-15 14:34 43.44440 -3.86504 41275 ft 399 kts 278°
2026-04-15 14:35 43.45225 -3.94020 41271 ft 396 kts 272°
2026-04-15 14:35 43.45694 -4.01582 41279 ft 396 kts 272°
2026-04-15 14:36 43.46165 -4.09136 41281 ft 396 kts 272°
2026-04-15 14:36 43.46626 -4.16702 41291 ft 396 kts 272°
2026-04-15 14:37 43.47085 -4.24217 41294 ft 396 kts 272°
2026-04-15 14:37 43.47541 -4.31777 41304 ft 396 kts 272°
2026-04-15 14:38 43.47960 -4.39341 41301 ft 396 kts 271°
2026-04-15 14:38 43.48305 -4.46909 41304 ft 396 kts 271°
2026-04-15 14:39 43.48662 -4.54487 41300 ft 396 kts 272°
2026-04-15 14:39 43.49072 -4.62057 41309 ft 397 kts 272°
2026-04-15 14:40 43.49492 -4.69645 41302 ft 397 kts 272°
2026-04-15 14:40 43.49898 -4.77235 41299 ft 398 kts 272°
2026-04-15 14:41 43.50292 -4.84840 41296 ft 398 kts 272°
2026-04-15 14:41 43.50236 -4.92385 41295 ft 396 kts 265°
2026-04-15 14:42 43.49949 -4.99974 41295 ft 397 kts 265°
2026-04-15 14:42 43.49659 -5.07564 41291 ft 397 kts 265°
2026-04-15 14:43 43.49369 -5.15160 41293 ft 397 kts 265°
2026-04-15 14:43 43.49062 -5.22774 41287 ft 398 kts 265°
2026-04-15 14:44 43.48757 -5.30371 41287 ft 398 kts 265°
2026-04-15 14:44 43.48452 -5.37982 41284 ft 398 kts 265°
2026-04-15 14:45 43.48139 -5.45541 41287 ft 398 kts 265°
2026-04-15 14:45 43.47817 -5.53156 41280 ft 398 kts 265°
2026-04-15 14:46 43.47496 -5.60761 41276 ft 398 kts 265°
2026-04-15 14:46 43.47168 -5.68370 41273 ft 398 kts 265°
2026-04-15 14:47 43.46834 -5.75978 41284 ft 398 kts 265°
2026-04-15 14:47 43.46495 -5.83523 41277 ft 398 kts 265°
2026-04-15 14:48 43.46147 -5.91117 41275 ft 397 kts 265°
2026-04-15 14:48 43.45801 -5.98714 41275 ft 397 kts 265°
2026-04-15 14:49 43.45450 -6.06302 41273 ft 397 kts 265°
2026-04-15 14:49 43.45083 -6.13888 41270 ft 397 kts 265°
2026-04-15 14:50 43.44716 -6.21480 41266 ft 397 kts 265°
2026-04-15 14:50 43.44348 -6.29069 41268 ft 398 kts 265°
2026-04-15 14:51 43.43974 -6.36662 41263 ft 398 kts 265°
2026-04-15 14:51 43.43596 -6.44257 41257 ft 398 kts 264°
2026-04-15 14:52 43.43214 -6.51803 41262 ft 398 kts 264°
2026-04-15 14:52 43.42816 -6.59401 41262 ft 398 kts 265°
2026-04-15 14:53 43.42421 -6.67008 41257 ft 398 kts 265°
2026-04-15 14:53 43.42020 -6.74611 41255 ft 398 kts 264°
2026-04-15 14:54 43.41614 -6.82206 41257 ft 398 kts 264°
2026-04-15 14:54 43.41201 -6.89802 41259 ft 398 kts 264°
2026-04-15 14:55 43.40787 -6.97403 41254 ft 398 kts 264°
2026-04-15 14:55 43.40369 -7.04988 41254 ft 397 kts 264°
2026-04-15 14:56 43.39946 -7.12518 41254 ft 398 kts 264°
2026-04-15 14:56 43.39507 -7.20100 41258 ft 398 kts 264°
2026-04-15 14:57 43.39069 -7.27692 41262 ft 398 kts 264°
2026-04-15 14:57 43.38633 -7.35273 41257 ft 398 kts 264°
2026-04-15 14:58 43.38195 -7.42852 41259 ft 398 kts 264°
2026-04-15 14:58 43.37743 -7.50425 41264 ft 398 kts 264°
2026-04-15 14:59 43.37285 -7.58005 41263 ft 398 kts 264°
2026-04-15 14:59 43.36823 -7.65575 41272 ft 397 kts 264°
2026-04-15 15:00 43.36359 -7.73144 41271 ft 397 kts 264°
2026-04-15 15:00 43.35895 -7.80706 41273 ft 397 kts 264°
2026-04-15 15:01 43.35421 -7.88266 41273 ft 397 kts 264°
2026-04-15 15:01 43.34937 -7.95773 41277 ft 397 kts 264°
2026-04-15 15:02 43.34451 -8.03326 41276 ft 397 kts 264°
2026-04-15 15:02 43.33965 -8.10882 41277 ft 397 kts 264°
2026-04-15 15:03 43.33475 -8.18432 41275 ft 397 kts 264°
2026-04-15 15:03 43.32976 -8.25990 41273 ft 397 kts 264°
2026-04-15 15:04 43.32447 -8.33548 41274 ft 397 kts 260°
2026-04-15 15:04 43.30648 -8.40681 41275 ft 398 kts 243°
2026-04-15 15:05 43.28388 -8.46187 41287 ft 399 kts 243°
2026-04-15 15:05 43.25671 -8.52820 41289 ft 399 kts 243°
2026-04-15 15:06 43.21599 -8.62773 41288 ft 399 kts 243°
2026-04-15 15:06 43.18865 -8.69410 41289 ft 399 kts 243°
2026-04-15 15:07 43.16135 -8.76041 41287 ft 399 kts 243°
2026-04-15 15:07 43.13406 -8.82661 41287 ft 399 kts 243°
2026-04-15 15:08 43.10682 -8.89237 41292 ft 400 kts 243°
2026-04-15 15:08 43.07944 -8.95851 41275 ft 400 kts 243°
2026-04-15 15:09 43.05203 -9.02454 41286 ft 399 kts 243°
2026-04-15 15:09 43.02453 -9.09054 41285 ft 399 kts 243°
2026-04-15 15:10 42.99697 -9.15653 41284 ft 400 kts 242°
2026-04-15 15:10 42.96932 -9.22251 41285 ft 401 kts 242°
2026-04-15 15:11 42.94208 -9.28738 41288 ft 401 kts 243°
2026-04-15 15:11 42.91427 -9.35354 41289 ft 401 kts 242°
2026-04-15 15:12 42.88669 -9.41913 41289 ft 401 kts 242°
2026-04-15 15:12 42.85875 -9.48514 41288 ft 402 kts 242°
2026-04-15 15:13 42.83158 -9.54934 41289 ft 402 kts 242°
2026-04-15 15:13 42.80383 -9.61477 41285 ft 402 kts 242°
2026-04-15 15:14 42.77584 -9.68068 41292 ft 402 kts 242°
2026-04-15 15:14 42.74780 -9.74648 41293 ft 402 kts 242°
2026-04-15 15:15 42.71984 -9.81189 41299 ft 402 kts 242°
2026-04-15 15:15 42.69168 -9.87753 41294 ft 402 kts 242°
2026-04-15 15:16 42.66357 -9.94321 41295 ft 402 kts 242°
2026-04-15 15:16 42.63536 -10.00882 41294 ft 402 kts 242°
2026-04-15 15:17 42.60705 -10.07441 41290 ft 402 kts 242°
2026-04-15 15:17 42.57877 -10.14002 41288 ft 402 kts 242°
2026-04-15 15:18 42.55043 -10.20554 41283 ft 402 kts 242°
2026-04-15 15:18 42.52204 -10.27098 41291 ft 402 kts 242°
2026-04-15 15:19 42.49366 -10.33633 41290 ft 402 kts 242°
2026-04-15 15:19 42.46519 -10.40166 41291 ft 402 kts 242°
2026-04-15 15:20 42.43664 -10.46683 41290 ft 402 kts 242°
2026-04-15 15:20 42.40811 -10.53206 41293 ft 402 kts 242°
2026-04-15 15:21 42.37977 -10.59674 41294 ft 402 kts 242°
2026-04-15 15:21 42.35114 -10.66186 41294 ft 403 kts 242°
2026-04-15 15:22 42.32244 -10.72693 41292 ft 403 kts 242°
2026-04-15 15:22 42.29610 -10.79339 41290 ft 400 kts 252°
2026-04-15 15:23 42.28759 -10.86701 41282 ft 400 kts 271°
2026-04-15 15:23 42.29357 -10.94189 41285 ft 401 kts 274°
2026-04-15 15:24 42.29954 -11.01682 41280 ft 402 kts 274°
2026-04-15 15:24 42.30544 -11.09192 41282 ft 402 kts 274°
2026-04-15 15:25 42.31135 -11.16703 41285 ft 402 kts 274°
2026-04-15 15:25 42.31732 -11.24225 41282 ft 402 kts 274°
2026-04-15 15:26 42.32325 -11.31745 41287 ft 403 kts 274°
2026-04-15 15:26 42.32899 -11.39227 41283 ft 403 kts 274°
2026-04-15 15:27 42.33477 -11.46762 41285 ft 403 kts 274°
2026-04-15 15:27 42.34058 -11.54292 41285 ft 403 kts 274°
2026-04-15 15:28 42.34631 -11.61826 41285 ft 403 kts 274°
2026-04-15 15:28 42.35191 -11.69363 41283 ft 403 kts 274°
2026-04-15 15:29 42.35744 -11.76907 41283 ft 403 kts 274°
2026-04-15 15:29 42.36302 -11.84452 41283 ft 403 kts 274°
2026-04-15 15:30 42.36845 -11.91992 41283 ft 403 kts 274°
2026-04-15 15:30 42.37390 -11.99547 41284 ft 403 kts 274°
2026-04-15 15:31 42.37936 -12.07089 41293 ft 403 kts 274°
2026-04-15 15:31 42.38468 -12.14593 41291 ft 403 kts 274°
2026-04-15 15:32 42.38995 -12.22144 41284 ft 403 kts 274°
2026-04-15 15:32 42.39518 -12.29696 41285 ft 403 kts 274°
2026-04-15 15:33 42.40043 -12.37224 41279 ft 403 kts 274°
2026-04-15 15:33 42.40559 -12.44787 41279 ft 403 kts 273°
2026-04-15 15:34 42.41066 -12.52352 41279 ft 403 kts 273°
2026-04-15 15:34 42.41567 -12.59912 41275 ft 403 kts 273°
2026-04-15 15:35 42.42060 -12.67423 41273 ft 403 kts 273°
2026-04-15 15:35 42.42559 -12.74986 41274 ft 404 kts 273°
2026-04-15 15:36 42.43053 -12.82551 41277 ft 404 kts 273°
2026-04-15 15:36 42.43537 -12.90121 41275 ft 404 kts 273°
2026-04-15 15:37 42.44016 -12.97709 41272 ft 404 kts 273°
2026-04-15 15:37 42.44486 -13.05285 41268 ft 404 kts 273°
2026-04-15 15:38 42.44958 -13.12878 41271 ft 404 kts 273°
2026-04-15 15:38 42.45425 -13.20460 41269 ft 404 kts 273°
2026-04-15 15:39 42.45886 -13.28053 41288 ft 404 kts 273°
2026-04-15 15:39 42.46341 -13.35599 41278 ft 404 kts 273°
2026-04-15 15:40 42.46788 -13.43189 41275 ft 404 kts 273°
2026-04-15 15:40 42.47236 -13.50780 41264 ft 404 kts 273°
2026-04-15 15:41 42.47677 -13.58374 41265 ft 405 kts 272°
2026-04-15 15:41 42.48109 -13.65973 41262 ft 405 kts 272°
2026-04-15 15:42 42.48546 -13.73583 41261 ft 405 kts 272°
2026-04-15 15:42 42.48979 -13.81188 41259 ft 405 kts 272°
2026-04-15 15:43 42.49407 -13.88805 41266 ft 405 kts 272°
2026-04-15 15:43 42.49820 -13.96417 41262 ft 405 kts 272°
2026-04-15 15:44 42.50709 -14.03912 41263 ft 407 kts 281°
2026-04-15 15:44 42.52056 -14.11326 41260 ft 408 kts 281°
2026-04-15 15:45 42.53398 -14.18791 41260 ft 408 kts 281°
2026-04-15 15:45 42.54733 -14.26262 41272 ft 408 kts 281°
2026-04-15 15:46 42.56065 -14.33742 41265 ft 408 kts 281°
2026-04-15 15:46 42.57394 -14.41221 41255 ft 407 kts 281°
2026-04-15 15:47 42.58713 -14.48695 41256 ft 407 kts 281°
2026-04-15 15:47 42.60033 -14.56170 41252 ft 407 kts 281°
2026-04-15 15:48 42.61349 -14.63655 41251 ft 407 kts 281°
2026-04-15 15:48 42.62650 -14.71143 41248 ft 408 kts 281°
2026-04-15 15:49 42.63950 -14.78637 41244 ft 408 kts 281°
2026-04-15 15:49 42.65248 -14.86135 41251 ft 408 kts 281°
2026-04-15 15:50 42.66537 -14.93603 41259 ft 408 kts 281°
2026-04-15 15:50 42.67827 -15.01112 41252 ft 408 kts 280°
2026-04-15 15:51 42.69111 -15.08638 41248 ft 409 kts 280°
2026-04-15 15:51 42.70395 -15.16163 41242 ft 409 kts 280°
2026-04-15 15:52 42.71674 -15.23695 41237 ft 409 kts 280°
2026-04-15 15:52 42.72937 -15.31205 41249 ft 409 kts 280°
2026-04-15 15:53 42.74208 -15.38753 41242 ft 409 kts 280°
2026-04-15 15:53 42.75469 -15.46299 41243 ft 409 kts 280°
2026-04-15 15:54 42.76517 -15.52570 41238 ft 409 kts 280°
2026-04-15 15:54 42.77768 -15.60138 41245 ft 409 kts 280°
2026-04-15 15:55 42.79015 -15.67685 41244 ft 409 kts 280°
2026-04-15 15:55 42.80263 -15.75248 41238 ft 409 kts 280°
2026-04-15 15:56 42.81508 -15.82814 41231 ft 409 kts 280°
2026-04-15 15:56 42.82750 -15.90375 41230 ft 409 kts 280°
2026-04-15 15:57 42.83978 -15.97949 41229 ft 409 kts 280°
2026-04-15 15:57 42.85193 -16.05521 41220 ft 409 kts 280°
2026-04-15 15:58 42.86404 -16.13049 41222 ft 410 kts 280°
2026-04-15 15:58 42.87616 -16.20605 41247 ft 410 kts 280°
2026-04-15 15:59 42.88830 -16.28200 41239 ft 410 kts 280°
2026-04-15 15:59 42.90029 -16.35793 41231 ft 409 kts 279°
2026-04-15 16:00 42.91219 -16.43384 41228 ft 409 kts 279°
2026-04-15 16:00 42.92417 -16.50984 41225 ft 410 kts 279°
2026-04-15 16:01 42.93609 -16.58536 41222 ft 410 kts 279°
2026-04-15 16:01 42.94799 -16.66138 41222 ft 410 kts 279°
2026-04-15 16:02 42.95985 -16.73753 41225 ft 410 kts 279°
2026-04-15 16:02 42.97164 -16.81381 41223 ft 410 kts 279°
2026-04-15 16:03 42.98333 -16.89003 41226 ft 410 kts 279°
2026-04-15 16:03 42.99487 -16.96614 41220 ft 409 kts 279°
2026-04-15 16:04 43.00084 -17.04300 41220 ft 406 kts 270°
2026-04-15 16:04 43.00209 -17.12025 41222 ft 406 kts 270°
2026-04-15 16:05 43.00335 -17.19744 41216 ft 406 kts 270°
2026-04-15 16:05 43.00451 -17.27472 41215 ft 407 kts 270°
2026-04-15 16:06 43.00562 -17.35142 41214 ft 407 kts 270°
2026-04-15 16:06 43.00678 -17.42866 41212 ft 407 kts 270°
2026-04-15 16:07 43.00787 -17.50603 41212 ft 407 kts 270°
2026-04-15 16:08 43.00926 -17.62216 41215 ft 408 kts 269°
2026-04-15 16:08 43.01016 -17.69964 41212 ft 408 kts 269°
2026-04-15 16:09 43.01100 -17.77718 41216 ft 408 kts 269°
2026-04-15 16:09 43.01178 -17.85476 41223 ft 408 kts 269°
2026-04-15 16:10 43.01252 -17.93227 41217 ft 408 kts 269°
2026-04-15 16:10 43.01320 -18.00980 41214 ft 408 kts 269°
2026-04-15 16:11 43.01383 -18.08642 41210 ft 407 kts 269°
2026-04-15 16:11 43.01436 -18.16333 41212 ft 407 kts 269°
2026-04-15 16:12 43.01493 -18.24071 41209 ft 407 kts 269°
2026-04-15 16:12 43.01547 -18.31821 41208 ft 407 kts 269°
2026-04-15 16:13 43.01593 -18.39555 41204 ft 407 kts 269°
2026-04-15 16:13 43.01631 -18.47294 41204 ft 407 kts 269°
2026-04-15 16:14 43.01665 -18.55024 41202 ft 407 kts 269°
2026-04-15 16:14 43.01694 -18.62758 41201 ft 407 kts 269°
2026-04-15 16:15 43.01713 -18.70475 41202 ft 407 kts 269°
2026-04-15 16:15 43.01726 -18.78207 41200 ft 407 kts 269°
2026-04-15 16:16 43.01735 -18.85932 41199 ft 407 kts 269°
2026-04-15 16:16 43.01743 -18.93614 41199 ft 407 kts 269°
2026-04-15 16:17 43.01745 -19.01343 41211 ft 407 kts 269°
2026-04-15 16:17 43.01745 -19.09075 41204 ft 406 kts 268°
2026-04-15 16:18 43.01737 -19.16793 41197 ft 406 kts 268°
2026-04-15 16:18 43.01721 -19.24517 41197 ft 406 kts 268°
2026-04-15 16:19 43.01694 -19.32236 41195 ft 406 kts 268°
2026-04-15 16:19 43.01669 -19.39963 41195 ft 406 kts 268°
2026-04-15 16:20 43.01648 -19.47697 41200 ft 407 kts 268°
2026-04-15 16:20 43.01619 -19.55421 41196 ft 406 kts 268°
2026-04-15 16:21 43.01579 -19.63097 41191 ft 406 kts 268°
2026-04-15 16:21 43.01530 -19.70822 41191 ft 406 kts 268°
2026-04-15 16:22 43.01482 -19.78538 41190 ft 406 kts 268°
2026-04-15 16:22 43.01427 -19.86252 41189 ft 406 kts 268°
2026-04-15 16:23 43.01367 -19.93973 41188 ft 406 kts 268°
2026-04-15 16:23 43.01298 -20.01693 41185 ft 406 kts 268°
2026-04-15 16:24 43.01221 -20.09405 41182 ft 406 kts 268°
2026-04-15 16:24 43.01147 -20.17052 41187 ft 406 kts 268°
2026-04-15 16:25 43.01074 -20.24764 41179 ft 406 kts 267°
2026-04-15 16:25 43.00993 -20.32426 41179 ft 406 kts 267°
2026-04-15 16:26 43.00899 -20.40128 41180 ft 406 kts 267°
2026-04-15 16:26 43.00796 -20.47839 41182 ft 406 kts 267°
2026-04-15 16:27 43.00693 -20.55544 41171 ft 406 kts 267°
2026-04-15 16:27 43.00595 -20.63260 41178 ft 406 kts 267°
2026-04-15 16:28 43.00487 -20.70969 41178 ft 406 kts 267°
2026-04-15 16:28 43.00365 -20.78683 41172 ft 406 kts 267°
2026-04-15 16:29 43.00238 -20.86386 41179 ft 406 kts 267°
2026-04-15 16:29 43.00106 -20.94082 41174 ft 405 kts 267°
2026-04-15 16:30 42.99980 -21.01731 41172 ft 405 kts 268°
2026-04-15 16:30 43.00067 -21.09494 41173 ft 406 kts 270°
2026-04-15 16:31 43.00263 -21.17148 41188 ft 406 kts 269°
2026-04-15 16:31 43.00424 -21.24835 41178 ft 404 kts 269°
2026-04-15 16:32 43.00542 -21.32517 41168 ft 404 kts 269°
2026-04-15 16:32 43.00642 -21.40191 41165 ft 404 kts 269°
2026-04-15 16:33 43.00736 -21.47869 41166 ft 403 kts 269°
2026-04-15 16:33 43.00840 -21.55532 41162 ft 404 kts 269°
2026-04-15 16:34 43.00935 -21.63146 41162 ft 404 kts 269°
2026-04-15 16:34 43.01024 -21.70819 41162 ft 404 kts 269°
2026-04-15 16:35 43.01112 -21.78502 41157 ft 404 kts 269°
2026-04-15 16:35 43.01191 -21.86180 41157 ft 404 kts 268°
2026-04-15 16:36 43.01261 -21.93852 41157 ft 404 kts 268°
2026-04-15 16:36 43.01328 -22.01535 41155 ft 404 kts 268°
2026-04-15 16:37 43.01391 -22.09214 41158 ft 403 kts 268°
2026-04-15 16:37 43.01447 -22.16846 41151 ft 401 kts 268°
2026-04-15 16:38 43.01496 -22.24429 41149 ft 402 kts 268°
2026-04-15 16:38 43.01548 -22.32074 41149 ft 402 kts 268°
2026-04-15 16:39 43.01592 -22.39659 41149 ft 402 kts 268°
2026-04-15 16:39 43.01634 -22.47301 41147 ft 402 kts 268°
2026-04-15 16:40 43.01666 -22.54931 41144 ft 401 kts 268°
2026-04-15 16:40 43.01692 -22.62565 41142 ft 401 kts 268°
2026-04-15 16:41 43.01713 -22.70191 41143 ft 401 kts 267°
2026-04-15 16:41 43.01728 -22.77826 41142 ft 402 kts 267°
2026-04-15 16:42 43.01737 -22.84163 41137 ft 402 kts 267°
2026-04-15 16:42 43.01752 -22.93036 41138 ft 402 kts 267°
2026-04-15 16:43 43.01758 -23.00684 41154 ft 402 kts 267°
2026-04-15 16:43 43.01753 -23.07081 41146 ft 402 kts 267°
2026-04-15 16:44 43.01740 -23.14718 41148 ft 401 kts 266°
2026-04-15 16:44 43.01722 -23.22287 41143 ft 401 kts 266°
2026-04-15 16:45 43.01706 -23.29909 41139 ft 401 kts 266°
2026-04-15 16:45 43.01686 -23.37527 41135 ft 401 kts 266°
2026-04-15 16:46 43.01667 -23.45138 41132 ft 401 kts 266°
2026-04-15 16:46 43.01633 -23.52752 41130 ft 401 kts 266°
2026-04-15 16:47 43.01595 -23.60372 41132 ft 401 kts 266°
2026-04-15 16:47 43.01546 -23.67981 41129 ft 401 kts 266°
2026-04-15 16:48 43.01499 -23.75591 41127 ft 401 kts 266°
2026-04-15 16:48 43.01446 -23.83160 41123 ft 400 kts 266°
2026-04-15 16:49 43.01392 -23.90771 41140 ft 400 kts 266°
2026-04-15 16:49 43.01331 -23.98353 41118 ft 398 kts 266°
2026-04-15 16:50 43.01264 -24.05922 41117 ft 398 kts 266°
2026-04-15 16:50 43.01191 -24.13491 41107 ft 398 kts 265°
2026-04-15 16:51 43.01119 -24.21017 41107 ft 398 kts 265°
2026-04-15 16:51 43.01033 -24.28596 41103 ft 399 kts 265°
2026-04-15 16:52 43.00940 -24.36170 41104 ft 399 kts 265°
2026-04-15 16:52 43.00847 -24.43760 41105 ft 399 kts 265°
2026-04-15 16:53 43.00751 -24.51349 41101 ft 400 kts 265°
2026-04-15 16:53 43.00652 -24.58949 41103 ft 400 kts 265°
2026-04-15 16:54 43.00543 -24.66554 41108 ft 400 kts 265°
2026-04-15 16:54 43.00430 -24.74111 41106 ft 400 kts 265°
2026-04-15 16:55 43.00315 -24.81714 41118 ft 400 kts 265°
2026-04-15 16:55 43.00188 -24.89303 41091 ft 399 kts 265°
2026-04-15 16:56 43.00061 -24.96897 41088 ft 399 kts 265°
2026-04-15 16:56 42.99988 -25.04445 41099 ft 401 kts 266°
2026-04-15 16:57 43.00138 -25.12071 41097 ft 402 kts 268°
2026-04-15 16:57 43.00323 -25.19699 41092 ft 401 kts 267°
2026-04-15 16:58 43.00461 -25.27322 41091 ft 401 kts 267°
2026-04-15 16:58 43.00571 -25.34942 41085 ft 401 kts 267°
2026-04-15 16:59 43.00672 -25.42565 41082 ft 401 kts 266°
2026-04-15 16:59 43.00767 -25.50143 41075 ft 401 kts 266°
2026-04-15 17:00 43.00867 -25.57771 41074 ft 401 kts 266°
2026-04-15 17:00 43.00962 -25.65388 41096 ft 401 kts 266°
2026-04-15 17:01 43.01051 -25.73007 41087 ft 401 kts 266°
2026-04-15 17:01 43.01129 -25.80617 41076 ft 401 kts 266°
2026-04-15 17:02 43.01206 -25.88226 41073 ft 400 kts 266°
2026-04-15 17:02 43.01275 -25.95779 41069 ft 400 kts 266°
2026-04-15 17:03 43.01341 -26.03379 41069 ft 400 kts 266°
2026-04-15 17:03 43.01407 -26.10990 41063 ft 401 kts 266°
2026-04-15 17:04 43.01464 -26.18600 41058 ft 401 kts 266°
2026-04-15 17:04 43.01519 -26.26211 41059 ft 401 kts 266°
2026-04-15 17:05 43.01559 -26.33821 41057 ft 401 kts 266°
2026-04-15 17:05 43.01594 -26.41431 41073 ft 400 kts 266°
2026-04-15 17:06 43.01634 -26.48857 41049 ft 399 kts 266°
2026-04-15 17:06 43.01669 -26.56429 41047 ft 399 kts 266°
2026-04-15 17:07 43.01691 -26.64015 41052 ft 399 kts 266°
2026-04-15 17:07 43.01715 -26.71551 41041 ft 400 kts 266°
2026-04-15 17:08 43.01732 -26.79152 41037 ft 400 kts 266°
2026-04-15 17:08 43.01738 -26.86754 41040 ft 400 kts 266°
2026-04-15 17:09 43.01746 -26.94367 41040 ft 400 kts 266°
2026-04-15 17:09 43.01754 -27.01980 41047 ft 400 kts 266°
2026-04-15 17:10 43.01755 -27.09584 41037 ft 400 kts 266°
2026-04-15 17:10 43.01743 -27.17149 41035 ft 400 kts 266°
2026-04-15 17:11 43.01728 -27.24740 41035 ft 399 kts 266°
2026-04-15 17:11 43.01710 -27.32323 41031 ft 399 kts 266°
2026-04-15 17:12 43.01668 -27.43716 41024 ft 400 kts 266°
2026-04-15 17:12 43.01635 -27.51315 41023 ft 400 kts 266°
2026-04-15 17:13 43.01599 -27.58933 41021 ft 401 kts 266°
2026-04-15 17:13 43.01551 -27.66503 41013 ft 401 kts 266°
2026-04-15 17:14 43.01504 -27.74122 41012 ft 401 kts 266°
2026-04-15 17:14 43.01458 -27.81735 41012 ft 401 kts 266°
2026-04-15 17:15 43.01404 -27.89347 41009 ft 401 kts 266°
2026-04-15 17:15 43.01346 -27.96967 41010 ft 401 kts 266°
2026-04-15 17:16 43.01280 -28.04583 41012 ft 401 kts 266°
2026-04-15 17:16 43.01200 -28.12149 41006 ft 401 kts 266°
2026-04-15 17:17 43.01123 -28.19782 41004 ft 401 kts 266°
2026-04-15 17:17 43.01045 -28.27394 41010 ft 401 kts 266°
2026-04-15 17:18 43.00958 -28.35020 40998 ft 401 kts 266°
2026-04-15 17:18 43.00868 -28.42645 40996 ft 401 kts 266°
2026-04-15 17:19 43.00773 -28.50265 40993 ft 401 kts 266°
2026-04-15 17:19 43.00668 -28.57828 40993 ft 401 kts 266°
2026-04-15 17:20 43.00562 -28.65438 40984 ft 401 kts 266°
2026-04-15 17:20 43.00453 -28.73044 40984 ft 400 kts 266°
2026-04-15 17:21 43.00331 -28.80653 40982 ft 400 kts 266°
2026-04-15 17:21 43.00201 -28.88258 40981 ft 400 kts 266°
2026-04-15 17:22 43.00074 -28.95848 40975 ft 400 kts 266°
2026-04-15 17:22 42.99976 -29.03455 40976 ft 400 kts 268°
2026-04-15 17:23 43.00106 -29.11013 40974 ft 401 kts 269°
2026-04-15 17:23 43.00303 -29.18617 40970 ft 400 kts 269°
2026-04-15 17:24 43.00456 -29.26217 40969 ft 400 kts 268°
2026-04-15 17:24 43.00566 -29.33818 40969 ft 400 kts 268°
2026-04-15 17:25 43.00661 -29.41410 40967 ft 400 kts 268°
2026-04-15 17:25 43.00757 -29.48998 40957 ft 399 kts 268°
2026-04-15 17:26 43.00857 -29.56549 40946 ft 397 kts 268°
2026-04-15 17:26 43.00946 -29.64094 40945 ft 397 kts 268°
2026-04-15 17:27 43.01032 -29.71592 40950 ft 398 kts 268°
2026-04-15 17:27 43.01116 -29.79152 40944 ft 398 kts 268°
2026-04-15 17:28 43.01195 -29.86710 40937 ft 398 kts 268°
2026-04-15 17:28 43.01264 -29.94262 40943 ft 398 kts 268°
2026-04-15 17:29 43.01333 -30.01818 40943 ft 397 kts 268°
2026-04-15 17:29 43.01398 -30.09354 40934 ft 396 kts 268°
2026-04-15 17:30 43.01458 -30.16890 40967 ft 396 kts 268°
2026-04-15 17:30 43.01509 -30.24406 40929 ft 395 kts 268°
2026-04-15 17:31 43.01553 -30.31903 40918 ft 395 kts 268°
2026-04-15 17:31 43.01591 -30.39408 40916 ft 395 kts 268°
2026-04-15 17:32 43.01631 -30.46908 40916 ft 395 kts 268°
2026-04-15 17:32 43.01661 -30.54385 40917 ft 395 kts 268°
2026-04-15 17:33 43.01684 -30.61892 40910 ft 395 kts 268°
2026-04-15 17:33 43.01704 -30.69420 40905 ft 395 kts 268°
2026-04-15 17:34 43.01723 -30.76882 40909 ft 395 kts 267°
2026-04-15 17:34 43.01736 -30.84382 40909 ft 395 kts 267°
2026-04-15 17:35 43.01746 -30.91891 40899 ft 394 kts 267°
2026-04-15 17:35 43.01753 -30.99374 40897 ft 394 kts 267°
2026-04-15 17:36 43.01751 -31.06870 40900 ft 395 kts 267°
2026-04-15 17:36 43.01743 -31.14371 40887 ft 395 kts 267°
2026-04-15 17:37 43.01731 -31.20622 40888 ft 395 kts 267°
2026-04-15 17:37 43.01709 -31.29358 40892 ft 395 kts 267°
2026-04-15 17:38 43.01693 -31.35648 40895 ft 395 kts 267°
2026-04-15 17:38 43.01673 -31.43028 40889 ft 395 kts 267°
2026-04-15 17:39 43.01650 -31.50393 40888 ft 395 kts 266°
2026-04-15 17:39 43.01613 -31.57910 40902 ft 396 kts 266°
2026-04-15 17:40 43.01572 -31.65430 40895 ft 396 kts 266°
2026-04-15 17:40 43.01523 -31.72957 40884 ft 396 kts 266°
2026-04-15 17:41 43.01477 -31.80497 40883 ft 397 kts 266°
2026-04-15 17:41 43.01423 -31.88038 40886 ft 397 kts 266°
2026-04-15 17:42 43.01355 -31.95588 40878 ft 397 kts 266°
2026-04-15 17:42 43.01289 -32.03145 40871 ft 398 kts 266°
2026-04-15 17:43 43.01215 -32.10697 40871 ft 398 kts 266°
2026-04-15 17:43 43.01142 -32.18211 40875 ft 398 kts 266°
2026-04-15 17:44 43.01061 -32.25765 40895 ft 398 kts 266°
2026-04-15 17:44 43.00975 -32.33340 40873 ft 399 kts 266°
2026-04-15 17:45 43.00884 -32.40921 40874 ft 399 kts 266°
2026-04-15 17:45 43.00793 -32.48504 40872 ft 399 kts 266°
2026-04-15 17:46 43.00690 -32.56108 40870 ft 400 kts 266°
2026-04-15 17:46 43.00583 -32.63701 40870 ft 400 kts 266°
2026-04-15 17:47 43.00469 -32.71302 40873 ft 400 kts 266°
2026-04-15 17:47 43.00359 -32.78861 40861 ft 400 kts 266°
2026-04-15 17:48 43.00243 -32.86463 40866 ft 400 kts 266°
2026-04-15 17:48 43.00113 -32.94077 40897 ft 401 kts 267°
2026-04-15 17:49 42.99982 -33.01698 40887 ft 401 kts 268°
2026-04-15 17:49 43.00060 -33.09330 40877 ft 402 kts 270°
2026-04-15 17:50 43.00259 -33.16975 40873 ft 402 kts 270°
2026-04-15 17:50 43.00419 -33.24617 40865 ft 403 kts 269°
2026-04-15 17:51 43.00534 -33.32270 40866 ft 403 kts 269°
2026-04-15 17:51 43.00635 -33.39869 40870 ft 403 kts 269°
2026-04-15 17:52 43.00735 -33.47530 40872 ft 403 kts 269°
2026-04-15 17:52 43.00844 -33.55193 40876 ft 403 kts 269°
2026-04-15 17:53 43.00936 -33.62860 40879 ft 403 kts 270°
2026-04-15 17:53 43.01021 -33.70527 40876 ft 404 kts 269°
2026-04-15 17:54 43.01100 -33.78205 40876 ft 404 kts 270°
2026-04-15 17:54 43.01185 -33.85890 40877 ft 405 kts 270°
2026-04-15 17:55 43.01266 -33.93536 40877 ft 405 kts 269°
2026-04-15 17:55 43.01335 -34.01230 40878 ft 405 kts 269°
2026-04-15 17:56 43.01401 -34.08930 40863 ft 405 kts 270°
2026-04-15 17:56 43.01455 -34.16632 40870 ft 406 kts 269°
2026-04-15 17:57 43.01503 -34.24341 40890 ft 406 kts 270°
2026-04-15 17:57 43.01549 -34.31908 40886 ft 406 kts 270°
2026-04-15 17:58 43.01588 -34.39547 40884 ft 406 kts 270°
2026-04-15 17:58 43.01632 -34.47268 40884 ft 406 kts 270°
2026-04-15 17:59 43.01670 -34.54990 40884 ft 407 kts 269°
2026-04-15 17:59 43.01692 -34.62714 40884 ft 407 kts 269°
2026-04-15 18:00 43.01715 -34.70435 40886 ft 406 kts 269°
2026-04-15 18:00 43.01731 -34.78155 40890 ft 406 kts 269°
2026-04-15 18:01 43.01749 -34.85825 40899 ft 407 kts 270°
2026-04-15 18:01 43.01759 -34.93608 40888 ft 407 kts 270°
2026-04-15 18:02 43.01757 -35.01320 40889 ft 408 kts 270°
2026-04-15 18:02 43.01748 -35.09076 40890 ft 408 kts 270°
2026-04-15 18:03 43.01736 -35.16787 40891 ft 408 kts 270°
2026-04-15 18:03 43.01728 -35.24598 40893 ft 409 kts 270°
2026-04-15 18:04 43.01711 -35.32315 40894 ft 409 kts 270°
2026-04-15 18:04 43.01683 -35.40080 40885 ft 409 kts 270°
2026-04-15 18:05 43.01648 -35.47846 40896 ft 409 kts 270°
2026-04-15 18:05 43.01619 -35.55612 40895 ft 409 kts 270°
2026-04-15 18:06 43.01582 -35.63385 40901 ft 409 kts 270°
2026-04-15 18:06 43.01537 -35.71163 40903 ft 409 kts 270°
2026-04-15 18:07 43.01485 -35.78947 40888 ft 409 kts 270°
2026-04-15 18:07 43.01432 -35.86725 40902 ft 409 kts 270°
2026-04-15 18:08 43.01367 -35.94503 40904 ft 409 kts 270°
2026-04-15 18:08 43.01291 -36.02277 40908 ft 409 kts 270°
2026-04-15 18:09 43.01223 -36.10020 40908 ft 409 kts 270°
2026-04-15 18:09 43.01152 -36.17802 40908 ft 409 kts 270°
2026-04-15 18:10 43.01072 -36.25582 40908 ft 410 kts 270°
2026-04-15 18:10 43.00981 -36.33364 40914 ft 410 kts 270°
2026-04-15 18:11 43.00883 -36.41141 40915 ft 409 kts 270°
2026-04-15 18:11 43.00787 -36.48924 40916 ft 409 kts 270°
2026-04-15 18:12 43.00686 -36.56716 40910 ft 410 kts 270°
2026-04-15 18:12 43.00571 -36.64496 40913 ft 410 kts 270°
2026-04-15 18:13 43.00452 -36.72286 40921 ft 410 kts 270°
2026-04-15 18:14 43.00271 -36.83920 40921 ft 410 kts 270°
2026-04-15 18:14 43.00145 -36.91705 40912 ft 410 kts 270°
2026-04-15 18:15 42.99522 -36.99441 40919 ft 413 kts 256°
2026-04-15 18:15 42.96957 -37.06527 40897 ft 421 kts 242°
2026-04-15 18:16 42.93790 -37.13252 40918 ft 421 kts 242°
2026-04-15 18:16 42.90619 -37.19986 40921 ft 421 kts 242°
2026-04-15 18:17 42.87453 -37.26720 40929 ft 421 kts 242°
2026-04-15 18:17 42.84284 -37.33441 40912 ft 422 kts 243°
2026-04-15 18:18 42.81108 -37.40151 40925 ft 421 kts 242°
2026-04-15 18:18 42.77946 -37.46820 40935 ft 421 kts 242°
2026-04-15 18:19 42.74763 -37.53515 40943 ft 421 kts 242°
2026-04-15 18:19 42.71573 -37.60208 40931 ft 421 kts 243°
2026-04-15 18:20 42.68380 -37.66876 40939 ft 421 kts 243°
2026-04-15 18:20 42.65191 -37.73548 40947 ft 421 kts 243°
2026-04-15 18:21 42.62019 -37.80161 40956 ft 421 kts 243°
2026-04-15 18:21 42.58824 -37.86819 40953 ft 420 kts 243°
2026-04-15 18:22 42.55633 -37.93455 40959 ft 420 kts 243°
2026-04-15 18:22 42.52422 -38.00081 40961 ft 419 kts 242°
2026-04-15 18:23 42.49216 -38.06683 40965 ft 419 kts 242°
2026-04-15 18:23 42.46016 -38.13297 40970 ft 419 kts 243°
2026-04-15 18:24 42.42818 -38.19890 40966 ft 419 kts 242°
2026-04-15 18:24 42.39630 -38.26434 40971 ft 419 kts 242°
2026-04-15 18:25 42.36427 -38.33009 40951 ft 418 kts 242°
2026-04-15 18:25 42.33217 -38.39558 40973 ft 417 kts 242°
2026-04-15 18:26 42.30011 -38.46087 40984 ft 417 kts 242°
2026-04-15 18:26 42.26809 -38.52610 40983 ft 416 kts 242°
2026-04-15 18:27 42.24143 -38.58015 40967 ft 416 kts 242°
2026-04-15 18:27 42.20945 -38.64509 40989 ft 415 kts 242°
2026-04-15 18:28 42.17748 -38.70969 40992 ft 414 kts 242°
2026-04-15 18:28 42.14037 -38.78461 40999 ft 413 kts 242°
2026-04-15 18:29 42.11361 -38.83853 40980 ft 413 kts 242°
2026-04-15 18:29 42.08162 -38.90261 40995 ft 412 kts 242°
2026-04-15 18:30 42.04966 -38.96664 41007 ft 412 kts 242°
2026-04-15 18:30 42.01783 -39.03058 41010 ft 411 kts 242°
2026-04-15 18:31 41.98609 -39.09407 40998 ft 411 kts 242°
2026-04-15 18:31 41.95412 -39.15770 41014 ft 411 kts 242°
2026-04-15 18:32 41.92212 -39.22129 41019 ft 410 kts 242°
2026-04-15 18:32 41.89011 -39.28481 41010 ft 410 kts 242°
2026-04-15 18:33 41.85813 -39.34819 41009 ft 410 kts 242°
2026-04-15 18:33 41.82611 -39.41146 41024 ft 410 kts 242°
2026-04-15 18:34 41.79418 -39.47430 41025 ft 410 kts 242°
2026-04-15 18:34 41.76209 -39.53738 41034 ft 410 kts 242°
2026-04-15 18:35 41.72978 -39.60083 41016 ft 409 kts 242°
2026-04-15 18:35 41.69789 -39.66335 41032 ft 409 kts 242°
2026-04-15 18:36 41.66573 -39.72623 41036 ft 410 kts 242°
2026-04-15 18:36 41.63346 -39.78915 41039 ft 409 kts 242°
2026-04-15 18:37 41.60128 -39.85192 41033 ft 409 kts 242°
2026-04-15 18:37 41.56902 -39.91460 41045 ft 410 kts 242°
2026-04-15 18:38 41.53674 -39.97727 41047 ft 410 kts 242°
2026-04-15 18:38 41.50445 -40.03990 41030 ft 410 kts 242°
2026-04-15 18:39 41.47210 -40.10244 41045 ft 410 kts 242°
2026-04-15 18:39 41.43963 -40.16497 41058 ft 410 kts 242°
2026-04-15 18:40 41.40732 -40.22702 41058 ft 410 kts 242°
2026-04-15 18:40 41.37478 -40.28946 41038 ft 410 kts 242°
2026-04-15 18:41 41.34217 -40.35181 41050 ft 410 kts 242°
2026-04-15 18:41 41.30958 -40.41424 41057 ft 410 kts 242°
2026-04-15 18:42 41.27697 -40.47651 41064 ft 410 kts 241°
2026-04-15 18:42 41.24425 -40.53868 41068 ft 411 kts 241°
2026-04-15 18:43 41.21157 -40.60096 41066 ft 411 kts 242°
2026-04-15 18:43 41.17903 -40.66276 41072 ft 411 kts 241°
2026-04-15 18:44 41.14618 -40.72492 41056 ft 411 kts 241°
2026-04-15 18:44 41.11331 -40.78697 41066 ft 411 kts 241°
2026-04-15 18:45 41.08035 -40.84906 41082 ft 412 kts 241°
2026-04-15 18:45 41.04743 -40.91109 41085 ft 412 kts 241°
2026-04-15 18:46 41.01459 -40.97279 41070 ft 412 kts 241°
2026-04-15 18:46 40.98839 -41.03873 41081 ft 402 kts 253°
2026-04-15 18:47 40.96788 -41.10756 41084 ft 402 kts 253°
2026-04-15 18:47 40.94730 -41.17649 41089 ft 403 kts 253°
2026-04-15 18:48 40.92659 -41.24540 41064 ft 403 kts 253°
2026-04-15 18:48 40.90579 -41.31422 41080 ft 403 kts 253°
2026-04-15 18:49 40.88491 -41.38307 41100 ft 404 kts 253°
2026-04-15 18:49 40.86406 -41.45193 41101 ft 404 kts 253°
2026-04-15 18:50 40.84329 -41.52079 41088 ft 404 kts 253°
2026-04-15 18:50 40.82245 -41.58914 41099 ft 404 kts 253°
2026-04-15 18:51 40.80139 -41.65791 41103 ft 404 kts 253°
2026-04-15 18:51 40.78034 -41.72660 41106 ft 404 kts 253°
2026-04-15 18:52 40.75925 -41.79527 41112 ft 404 kts 253°
2026-04-15 18:52 40.73805 -41.86399 41105 ft 404 kts 252°
2026-04-15 18:53 40.71685 -41.93256 41115 ft 404 kts 252°
2026-04-15 18:53 40.69569 -42.00120 41112 ft 404 kts 252°
2026-04-15 18:54 40.67461 -42.06924 41120 ft 404 kts 252°
2026-04-15 18:54 40.65329 -42.13773 41111 ft 404 kts 252°
2026-04-15 18:55 40.63193 -42.20616 41125 ft 404 kts 252°
2026-04-15 18:55 40.61052 -42.27473 41125 ft 404 kts 252°
2026-04-15 18:56 40.58910 -42.34321 41122 ft 404 kts 252°
2026-04-15 18:56 40.56761 -42.41158 41122 ft 404 kts 252°
2026-04-15 18:57 40.54613 -42.48004 41133 ft 405 kts 252°
2026-04-15 18:57 40.52453 -42.54846 41135 ft 405 kts 252°
2026-04-15 18:58 40.50288 -42.61671 41135 ft 405 kts 252°
2026-04-15 18:58 40.48124 -42.68502 41121 ft 405 kts 252°
2026-04-15 18:59 40.45945 -42.75328 41136 ft 405 kts 252°
2026-04-15 18:59 40.43776 -42.82113 41146 ft 405 kts 252°
2026-04-15 19:00 40.41597 -42.88944 41148 ft 405 kts 252°
2026-04-15 19:00 40.39417 -42.95774 41137 ft 405 kts 252°
2026-04-15 19:01 40.37245 -43.02535 41154 ft 406 kts 252°
2026-04-15 19:01 40.35046 -43.09337 41149 ft 405 kts 252°
2026-04-15 19:02 40.32855 -43.16151 41154 ft 405 kts 252°
2026-04-15 19:02 40.30655 -43.22957 41150 ft 405 kts 251°
2026-04-15 19:03 40.28449 -43.29757 41161 ft 405 kts 251°
2026-04-15 19:03 40.26242 -43.36546 41161 ft 405 kts 251°
2026-04-15 19:04 40.24025 -43.43334 41155 ft 405 kts 251°
2026-04-15 19:04 40.21821 -43.50066 41145 ft 405 kts 251°
2026-04-15 19:05 40.19600 -43.56841 41155 ft 405 kts 251°
2026-04-15 19:05 40.17371 -43.63627 41157 ft 405 kts 251°
2026-04-15 19:06 40.15146 -43.70399 41162 ft 405 kts 251°
2026-04-15 19:06 40.12920 -43.77177 41147 ft 406 kts 251°
2026-04-15 19:07 40.10679 -43.83940 41161 ft 406 kts 251°
2026-04-15 19:07 40.08427 -43.90703 41166 ft 406 kts 251°
2026-04-15 19:08 40.06192 -43.97431 41173 ft 406 kts 251°
2026-04-15 19:08 40.03944 -44.04192 41165 ft 406 kts 251°
2026-04-15 19:09 40.01684 -44.10952 41170 ft 406 kts 251°
2026-04-15 19:09 39.99419 -44.17710 41176 ft 406 kts 251°
2026-04-15 19:10 39.97157 -44.24461 41177 ft 406 kts 251°
2026-04-15 19:10 39.94886 -44.31215 41162 ft 407 kts 251°
2026-04-15 19:11 39.92602 -44.37964 41172 ft 407 kts 251°
2026-04-15 19:11 39.90325 -44.44711 41187 ft 407 kts 251°
2026-04-15 19:12 39.88041 -44.51455 41185 ft 407 kts 251°
2026-04-15 19:12 39.85746 -44.58199 41180 ft 407 kts 250°
2026-04-15 19:13 39.83470 -44.64895 41191 ft 407 kts 250°
2026-04-15 19:13 39.81178 -44.71625 41190 ft 407 kts 250°
2026-04-15 19:14 39.78880 -44.78351 41188 ft 407 kts 250°
2026-04-15 19:14 39.76567 -44.85082 41176 ft 407 kts 250°
2026-04-15 19:15 39.74257 -44.91798 41194 ft 407 kts 250°
2026-04-15 19:15 39.71944 -44.98512 41193 ft 407 kts 250°
2026-04-15 19:16 39.69623 -45.05236 41197 ft 407 kts 250°
2026-04-15 19:16 39.67697 -45.10811 41184 ft 407 kts 250°
2026-04-15 19:17 39.65374 -45.17524 41195 ft 408 kts 250°
2026-04-15 19:17 39.63046 -45.24228 41201 ft 408 kts 250°
2026-04-15 19:18 39.60711 -45.30935 41204 ft 408 kts 250°
2026-04-15 19:18 39.57196 -45.40984 41196 ft 408 kts 250°
2026-04-15 19:19 39.54862 -45.47647 41203 ft 408 kts 250°
2026-04-15 19:19 39.52509 -45.54352 41208 ft 408 kts 250°
2026-04-15 19:20 39.50145 -45.61036 41202 ft 408 kts 250°
2026-04-15 19:20 39.47787 -45.67723 41200 ft 408 kts 250°
2026-04-15 19:21 39.45428 -45.74410 41205 ft 409 kts 250°
2026-04-15 19:21 39.43058 -45.81101 41208 ft 409 kts 250°
2026-04-15 19:22 39.40697 -45.87736 41211 ft 409 kts 250°
2026-04-15 19:22 39.38323 -45.94412 41217 ft 409 kts 250°
2026-04-15 19:23 39.35942 -46.01088 41217 ft 409 kts 249°
2026-04-15 19:23 39.33556 -46.07757 41220 ft 408 kts 249°
2026-04-15 19:24 39.31171 -46.14410 41201 ft 408 kts 249°
2026-04-15 19:24 39.28781 -46.21058 41207 ft 408 kts 249°
2026-04-15 19:25 39.26386 -46.27714 41217 ft 409 kts 249°
2026-04-15 19:25 39.24038 -46.34214 41222 ft 409 kts 249°
2026-04-15 19:26 39.21639 -46.40826 41205 ft 410 kts 249°
2026-04-15 19:26 39.19228 -46.47482 41215 ft 410 kts 249°
2026-04-15 19:27 39.16810 -46.54154 41224 ft 410 kts 249°
2026-04-15 19:27 39.14391 -46.60811 41224 ft 410 kts 249°
2026-04-15 19:28 39.11960 -46.67460 41216 ft 410 kts 249°
2026-04-15 19:28 39.09527 -46.74107 41219 ft 411 kts 249°
2026-04-15 19:29 39.07088 -46.80757 41220 ft 411 kts 249°
2026-04-15 19:29 39.04654 -46.87402 41223 ft 411 kts 249°
2026-04-15 19:30 39.02207 -46.94043 41217 ft 411 kts 249°
2026-04-15 19:30 38.99744 -47.00690 41224 ft 411 kts 249°
2026-04-15 19:31 38.97571 -47.07485 41228 ft 410 kts 253°
2026-04-15 19:31 38.95643 -47.14325 41227 ft 409 kts 253°
2026-04-15 19:32 38.93668 -47.21180 41227 ft 410 kts 252°
2026-04-15 19:32 38.91601 -47.28011 41229 ft 410 kts 252°
2026-04-15 19:33 38.89520 -47.34822 41235 ft 410 kts 252°
2026-04-15 19:33 38.87448 -47.41627 41234 ft 409 kts 252°
2026-04-15 19:34 38.85380 -47.48436 41228 ft 409 kts 252°
2026-04-15 19:34 38.83307 -47.55233 41231 ft 409 kts 252°
2026-04-15 19:35 38.81226 -47.62025 41229 ft 409 kts 252°
2026-04-15 19:35 38.79143 -47.68812 41212 ft 409 kts 252°
2026-04-15 19:36 38.77058 -47.75609 41219 ft 409 kts 252°
2026-04-15 19:36 38.74978 -47.82401 41217 ft 409 kts 252°
2026-04-15 19:37 38.72898 -47.89137 41220 ft 409 kts 252°
2026-04-15 19:37 38.70791 -47.95918 41212 ft 410 kts 252°
2026-04-15 19:38 38.68684 -48.02704 41214 ft 410 kts 252°
2026-04-15 19:38 38.66577 -48.09487 41219 ft 410 kts 252°
2026-04-15 19:39 38.64460 -48.16274 41223 ft 410 kts 252°
2026-04-15 19:39 38.62344 -48.23053 41219 ft 410 kts 251°
2026-04-15 19:40 38.60241 -48.29792 41222 ft 411 kts 251°
2026-04-15 19:40 38.58107 -48.36576 41228 ft 410 kts 251°
2026-04-15 19:41 38.55972 -48.43339 41230 ft 410 kts 251°
2026-04-15 19:41 38.53835 -48.50087 41227 ft 410 kts 251°
2026-04-15 19:42 38.51692 -48.56846 41229 ft 410 kts 251°
2026-04-15 19:42 38.49563 -48.63559 41229 ft 410 kts 251°
2026-04-15 19:43 38.47425 -48.70306 41226 ft 410 kts 251°
2026-04-15 19:43 38.45277 -48.77062 41210 ft 410 kts 251°
2026-04-15 19:44 38.43123 -48.83801 41213 ft 410 kts 251°
2026-04-15 19:44 38.40959 -48.90541 41221 ft 411 kts 251°
2026-04-15 19:45 38.38793 -48.97278 41225 ft 411 kts 251°
2026-04-15 19:45 38.36643 -49.03972 41215 ft 410 kts 251°
2026-04-15 19:46 38.34478 -49.10700 41219 ft 410 kts 251°
2026-04-15 19:46 38.32305 -49.17428 41222 ft 411 kts 251°
2026-04-15 19:47 38.30123 -49.24145 41223 ft 410 kts 251°
2026-04-15 19:47 38.27937 -49.30862 41213 ft 410 kts 251°
2026-04-15 19:48 38.25760 -49.37564 41219 ft 410 kts 251°
2026-04-15 19:48 38.23579 -49.44274 41224 ft 410 kts 251°
2026-04-15 19:49 38.21383 -49.50972 41223 ft 410 kts 251°
2026-04-15 19:49 38.19182 -49.57661 41204 ft 410 kts 250°
2026-04-15 19:50 38.16988 -49.64347 41216 ft 410 kts 251°
2026-04-15 19:50 38.14799 -49.70990 41221 ft 410 kts 250°
2026-04-15 19:51 38.12602 -49.77673 41218 ft 410 kts 251°
2026-04-15 19:51 38.10392 -49.84357 41216 ft 411 kts 250°
2026-04-15 19:52 38.08170 -49.91050 41221 ft 411 kts 250°
2026-04-15 19:52 38.05939 -49.97727 41225 ft 411 kts 250°
2026-04-15 19:53 38.03704 -50.04410 41225 ft 411 kts 250°
2026-04-15 19:53 38.01470 -50.11097 41219 ft 412 kts 250°
2026-04-15 19:54 37.99246 -50.17747 41226 ft 413 kts 250°
2026-04-15 19:54 37.97000 -50.24439 41230 ft 413 kts 250°
2026-04-15 19:55 37.94756 -50.31136 41224 ft 412 kts 250°
2026-04-15 19:55 37.92501 -50.37822 41226 ft 412 kts 250°
2026-04-15 19:56 37.90244 -50.44499 41231 ft 412 kts 250°
2026-04-15 19:56 37.87984 -50.51179 41235 ft 412 kts 250°
2026-04-15 19:57 37.85720 -50.57846 41224 ft 412 kts 250°
2026-04-15 19:57 37.83451 -50.64511 41232 ft 413 kts 250°
2026-04-15 19:58 37.81180 -50.71182 41234 ft 413 kts 250°
2026-04-15 19:58 37.78905 -50.77847 41235 ft 413 kts 250°
2026-04-15 19:59 37.76635 -50.84462 41225 ft 413 kts 250°
2026-04-15 19:59 37.74343 -50.91128 41231 ft 413 kts 250°
2026-04-15 20:00 37.72061 -50.97787 41234 ft 413 kts 250°
2026-04-15 20:00 37.69768 -51.04443 41243 ft 413 kts 250°
2026-04-15 20:01 37.67469 -51.11085 41236 ft 413 kts 250°
2026-04-15 20:01 37.65165 -51.17730 41238 ft 413 kts 250°
2026-04-15 20:02 37.62861 -51.24374 41238 ft 413 kts 250°
2026-04-15 20:02 37.60566 -51.30977 41242 ft 413 kts 250°
2026-04-15 20:03 37.58246 -51.37606 41229 ft 413 kts 249°
2026-04-15 20:03 37.55928 -51.44245 41237 ft 414 kts 250°
2026-04-15 20:04 37.53607 -51.50880 41240 ft 414 kts 250°
2026-04-15 20:04 37.51277 -51.57518 41223 ft 414 kts 249°
2026-04-15 20:05 37.48941 -51.64143 41234 ft 415 kts 249°
2026-04-15 20:05 37.46599 -51.70787 41242 ft 415 kts 249°
2026-04-15 20:06 37.44271 -51.77394 41250 ft 415 kts 249°
2026-04-15 20:06 37.41917 -51.84031 41238 ft 416 kts 249°
2026-04-15 20:07 37.39559 -51.90666 41244 ft 416 kts 249°
2026-04-15 20:07 37.37597 -51.96183 41248 ft 415 kts 249°
2026-04-15 20:08 37.35231 -52.02825 41250 ft 416 kts 249°
2026-04-15 20:08 37.32866 -52.09453 41228 ft 416 kts 249°
2026-04-15 20:09 37.30495 -52.16081 41243 ft 416 kts 249°
2026-04-15 20:09 37.28116 -52.22719 41250 ft 417 kts 249°
2026-04-15 20:10 37.25727 -52.29371 41267 ft 418 kts 249°
2026-04-15 20:10 37.23332 -52.36013 41245 ft 418 kts 249°
2026-04-15 20:11 37.20944 -52.42605 41250 ft 418 kts 249°
2026-04-15 20:11 37.18539 -52.49246 41252 ft 418 kts 249°
2026-04-15 20:12 37.16129 -52.55898 41265 ft 419 kts 249°
2026-04-15 20:12 37.13719 -52.62551 41235 ft 419 kts 249°
2026-04-15 20:13 37.11297 -52.69197 41246 ft 419 kts 249°
2026-04-15 20:13 37.08868 -52.75844 41252 ft 419 kts 249°
2026-04-15 20:14 37.06453 -52.82454 41264 ft 420 kts 249°
2026-04-15 20:14 37.04009 -52.89110 41245 ft 421 kts 249°
2026-04-15 20:15 37.01560 -52.95770 41257 ft 421 kts 249°
2026-04-15 20:15 36.99142 -53.02442 41266 ft 421 kts 251°
2026-04-15 20:16 36.97058 -53.09254 41269 ft 420 kts 254°
2026-04-15 20:16 36.95107 -53.16137 41252 ft 420 kts 253°
2026-04-15 20:17 36.93101 -53.22997 41264 ft 420 kts 253°
2026-04-15 20:17 36.91025 -53.29821 41269 ft 420 kts 252°
2026-04-15 20:18 36.88932 -53.36641 41269 ft 421 kts 252°
2026-04-15 20:18 36.86865 -53.43433 41277 ft 421 kts 253°
2026-04-15 20:19 36.84779 -53.50263 41256 ft 421 kts 252°
2026-04-15 20:19 36.82690 -53.57093 41264 ft 421 kts 252°
2026-04-15 20:20 36.80595 -53.63926 41262 ft 421 kts 252°
2026-04-15 20:20 36.78490 -53.70742 41270 ft 421 kts 252°
2026-04-15 20:21 36.76386 -53.77561 41268 ft 422 kts 252°
2026-04-15 20:21 36.74279 -53.84386 41275 ft 422 kts 252°
2026-04-15 20:22 36.72167 -53.91222 41274 ft 422 kts 252°
2026-04-15 20:22 36.70047 -53.98057 41278 ft 423 kts 252°
2026-04-15 20:23 36.67927 -54.04838 41266 ft 423 kts 252°
2026-04-15 20:23 36.65785 -54.11675 41269 ft 423 kts 252°
2026-04-15 20:24 36.62582 -54.21925 41279 ft 424 kts 252°
2026-04-15 20:25 36.60441 -54.28773 41271 ft 424 kts 252°
2026-04-15 20:25 36.58302 -54.35571 41263 ft 425 kts 252°
2026-04-15 20:26 36.56143 -54.42415 41272 ft 425 kts 252°
2026-04-15 20:26 36.53979 -54.49250 41278 ft 425 kts 252°
2026-04-15 20:27 36.51814 -54.56079 41274 ft 425 kts 252°
2026-04-15 20:27 36.49639 -54.62917 41276 ft 425 kts 252°
2026-04-15 20:28 36.47464 -54.69757 41268 ft 425 kts 252°
2026-04-15 20:28 36.45283 -54.76594 41272 ft 425 kts 251°
2026-04-15 20:29 36.43115 -54.83385 41271 ft 426 kts 251°
2026-04-15 20:29 36.40921 -54.90219 41276 ft 426 kts 251°
2026-04-15 20:30 36.38723 -54.97051 41268 ft 426 kts 251°
2026-04-15 20:30 36.36528 -55.03875 41274 ft 426 kts 251°
2026-04-15 20:31 36.34322 -55.10700 41277 ft 426 kts 251°
2026-04-15 20:31 36.32107 -55.17526 41283 ft 426 kts 251°
2026-04-15 20:32 36.29890 -55.24347 41284 ft 427 kts 251°
2026-04-15 20:32 36.27691 -55.31128 41266 ft 427 kts 251°
2026-04-15 20:33 36.25470 -55.37957 41276 ft 427 kts 251°
2026-04-15 20:33 36.23407 -55.44276 41284 ft 427 kts 251°
2026-04-15 20:34 36.21174 -55.51104 41290 ft 427 kts 251°
2026-04-15 20:34 36.18709 -55.58610 41280 ft 428 kts 251°
2026-04-15 20:35 36.16467 -55.65446 41282 ft 428 kts 251°
2026-04-15 20:35 36.14215 -55.72277 41282 ft 428 kts 251°
2026-04-15 20:36 36.11957 -55.79097 41290 ft 429 kts 251°
2026-04-15 20:36 36.09693 -55.85927 41288 ft 429 kts 250°
2026-04-15 20:37 36.07424 -55.92753 41276 ft 429 kts 251°
2026-04-15 20:37 36.05151 -55.99585 41284 ft 430 kts 250°
2026-04-15 20:38 36.02879 -56.06418 41292 ft 430 kts 250°
2026-04-15 20:38 36.00595 -56.13239 41294 ft 430 kts 250°
2026-04-15 20:39 35.98310 -56.20057 41294 ft 430 kts 250°
2026-04-15 20:39 35.96021 -56.26874 41290 ft 430 kts 250°
2026-04-15 20:40 35.93728 -56.33697 41293 ft 430 kts 250°
2026-04-15 20:40 35.91436 -56.40471 41294 ft 430 kts 250°
2026-04-15 20:41 35.89131 -56.47288 41299 ft 431 kts 250°
2026-04-15 20:41 35.86818 -56.54105 41301 ft 430 kts 250°
2026-04-15 20:42 35.84513 -56.60911 41288 ft 430 kts 250°
2026-04-15 20:42 35.82202 -56.67720 41293 ft 430 kts 250°
2026-04-15 20:43 35.79881 -56.74529 41296 ft 431 kts 250°
2026-04-15 20:43 35.77553 -56.81331 41299 ft 431 kts 250°
2026-04-15 20:44 35.75222 -56.88135 41296 ft 432 kts 250°
2026-04-15 20:44 35.72878 -56.94944 41302 ft 432 kts 250°
2026-04-15 20:45 35.70547 -57.01717 41304 ft 432 kts 250°
2026-04-15 20:45 35.68203 -57.08525 41305 ft 432 kts 250°
2026-04-15 20:46 35.65851 -57.15329 41304 ft 432 kts 249°
2026-04-15 20:46 35.63487 -57.22136 41303 ft 433 kts 249°
2026-04-15 20:47 35.61125 -57.28937 41308 ft 433 kts 249°
2026-04-15 20:47 35.58756 -57.35735 41308 ft 432 kts 249°
2026-04-15 20:48 35.56390 -57.42516 41304 ft 432 kts 249°
2026-04-15 20:48 35.54019 -57.49310 41308 ft 433 kts 249°
2026-04-15 20:49 35.52046 -57.54953 41296 ft 432 kts 249°
2026-04-15 20:49 35.49673 -57.61738 41301 ft 432 kts 249°
2026-04-15 20:50 35.47292 -57.68510 41303 ft 432 kts 249°
2026-04-15 20:50 35.44898 -57.75287 41307 ft 433 kts 249°
2026-04-15 20:51 35.42506 -57.82056 41311 ft 433 kts 249°
2026-04-15 20:51 35.40107 -57.88843 41307 ft 434 kts 249°
2026-04-15 20:52 35.37699 -57.95618 41305 ft 434 kts 249°
2026-04-15 20:52 35.35281 -58.02395 41308 ft 434 kts 249°
2026-04-15 20:53 35.32873 -58.09171 41313 ft 434 kts 249°
2026-04-15 20:53 35.30452 -58.15949 41314 ft 434 kts 249°
2026-04-15 20:54 35.28029 -58.22714 41307 ft 434 kts 249°
2026-04-15 20:54 35.25604 -58.29480 41312 ft 434 kts 249°
2026-04-15 20:55 35.23174 -58.36252 41314 ft 434 kts 249°
2026-04-15 20:55 35.20734 -58.43010 41313 ft 434 kts 249°
2026-04-15 20:56 35.18311 -58.49721 41308 ft 434 kts 249°
2026-04-15 20:56 35.15859 -58.56521 41306 ft 434 kts 248°
2026-04-15 20:57 35.13426 -58.63274 41306 ft 434 kts 248°
2026-04-15 20:57 35.10990 -58.69971 41309 ft 434 kts 248°
2026-04-15 20:58 35.08529 -58.76718 41313 ft 435 kts 248°
2026-04-15 20:58 35.06062 -58.83461 41311 ft 435 kts 248°
2026-04-15 20:59 35.03595 -58.90196 41307 ft 435 kts 248°
2026-04-15 20:59 35.01128 -58.96935 41314 ft 435 kts 248°
2026-04-15 21:00 34.99322 -59.03928 41305 ft 432 kts 260°
2026-04-15 21:00 34.98075 -59.11087 41310 ft 432 kts 259°
2026-04-15 21:01 34.96794 -59.18250 41310 ft 432 kts 259°
2026-04-15 21:01 34.95525 -59.25363 41310 ft 432 kts 259°
2026-04-15 21:02 34.94256 -59.32527 41298 ft 432 kts 259°
2026-04-15 21:02 34.92972 -59.39703 41301 ft 433 kts 259°
2026-04-15 21:03 34.91682 -59.46880 41308 ft 433 kts 259°
2026-04-15 21:03 34.90387 -59.54043 41306 ft 433 kts 259°
2026-04-15 21:04 34.89102 -59.61171 41304 ft 433 kts 259°
2026-04-15 21:04 34.87805 -59.68334 41306 ft 433 kts 259°
2026-04-15 21:05 34.86504 -59.75503 41308 ft 434 kts 259°
2026-04-15 21:05 34.85197 -59.82677 41310 ft 434 kts 259°
2026-04-15 21:06 34.83881 -59.89845 41302 ft 433 kts 259°
2026-04-15 21:06 34.82564 -59.97004 41304 ft 433 kts 259°
2026-04-15 21:07 34.81240 -60.04165 41305 ft 433 kts 259°
2026-04-15 21:07 34.79917 -60.11319 41310 ft 433 kts 259°
2026-04-15 21:08 34.78586 -60.18479 41306 ft 434 kts 259°
2026-04-15 21:08 34.77263 -60.25596 41297 ft 434 kts 259°
2026-04-15 21:09 34.75925 -60.32763 41301 ft 434 kts 259°
2026-04-15 21:09 34.74582 -60.39923 41305 ft 435 kts 258°
2026-04-15 21:10 34.73230 -60.47079 41309 ft 435 kts 259°
2026-04-15 21:10 34.71875 -60.54251 41308 ft 435 kts 258°
2026-04-15 21:11 34.70512 -60.61433 41306 ft 436 kts 258°
2026-04-15 21:11 34.69148 -60.68556 41312 ft 436 kts 258°
2026-04-15 21:12 34.67780 -60.75729 41308 ft 436 kts 258°
2026-04-15 21:12 34.66409 -60.82909 41305 ft 436 kts 258°
2026-04-15 21:13 34.65038 -60.90085 41302 ft 436 kts 258°
2026-04-15 21:13 34.63648 -60.97263 41315 ft 436 kts 258°
2026-04-15 21:14 34.62259 -61.04432 41302 ft 436 kts 258°
2026-04-15 21:14 34.60873 -61.11608 41312 ft 436 kts 258°
2026-04-15 21:15 34.59478 -61.18775 41302 ft 436 kts 258°
2026-04-15 21:15 34.58069 -61.25934 41298 ft 436 kts 258°
2026-04-15 21:16 34.56660 -61.33088 41299 ft 436 kts 258°
2026-04-15 21:16 34.55254 -61.40243 41305 ft 436 kts 258°
2026-04-15 21:17 34.53856 -61.47367 41301 ft 436 kts 258°
2026-04-15 21:17 34.52429 -61.54565 41298 ft 436 kts 258°
2026-04-15 21:18 34.51009 -61.61657 41298 ft 436 kts 258°
2026-04-15 21:18 34.49576 -61.68842 41294 ft 436 kts 258°
2026-04-15 21:19 34.48168 -61.75941 41292 ft 436 kts 258°
2026-04-15 21:19 34.46734 -61.83073 41299 ft 436 kts 258°
2026-04-15 21:20 34.45298 -61.90204 41294 ft 436 kts 258°
2026-04-15 21:20 34.43851 -61.97338 41292 ft 436 kts 258°
2026-04-15 21:21 34.42400 -62.04471 41300 ft 436 kts 258°
2026-04-15 21:21 34.40804 -62.11559 41294 ft 438 kts 250°
2026-04-15 21:22 34.37686 -62.17912 41299 ft 444 kts 233°
2026-04-15 21:22 34.33729 -62.23647 41285 ft 444 kts 233°
2026-04-15 21:22 34.31753 -62.26529 41052 ft 444 kts 233°
2026-04-15 21:23 34.29779 -62.29418 40793 ft 444 kts 233°
2026-04-15 21:23 34.27818 -62.32290 40558 ft 444 kts 233°
2026-04-15 21:23 34.25877 -62.35131 40309 ft 444 kts 233°
2026-04-15 21:23 34.23906 -62.38012 40062 ft 445 kts 233°
2026-04-15 21:24 34.21926 -62.40897 39825 ft 446 kts 233°
2026-04-15 21:24 34.19945 -62.43778 39574 ft 446 kts 233°
2026-04-15 21:24 34.17959 -62.46663 39338 ft 447 kts 233°
2026-04-15 21:24 34.15964 -62.49557 39104 ft 448 kts 233°
2026-04-15 21:25 34.13972 -62.52453 38862 ft 449 kts 233°
2026-04-15 21:25 34.11977 -62.55354 38578 ft 450 kts 233°
2026-04-15 21:25 34.09970 -62.58264 38300 ft 451 kts 232°
2026-04-15 21:25 34.07961 -62.61170 38026 ft 452 kts 232°
2026-04-15 21:26 34.05948 -62.64081 37753 ft 452 kts 232°
2026-04-15 21:26 34.03932 -62.66996 37493 ft 453 kts 232°
2026-04-15 21:26 34.01910 -62.69921 37223 ft 454 kts 232°
2026-04-15 21:26 33.99885 -62.72850 36966 ft 454 kts 232°
2026-04-15 21:27 33.97860 -62.75775 36700 ft 455 kts 232°
2026-04-15 21:27 33.95826 -62.78709 36445 ft 456 kts 232°
2026-04-15 21:27 33.93792 -62.81640 36194 ft 456 kts 232°
2026-04-15 21:27 33.91751 -62.84572 35940 ft 457 kts 232°
2026-04-15 21:28 33.89703 -62.87505 35689 ft 458 kts 232°
2026-04-15 21:28 33.87651 -62.90449 35437 ft 459 kts 232°
2026-04-15 21:28 33.85600 -62.93393 35207 ft 459 kts 232°
2026-04-15 21:28 33.83547 -62.96341 34962 ft 460 kts 232°
2026-04-15 21:29 33.81517 -62.99252 34726 ft 461 kts 232°
2026-04-15 21:29 33.79457 -63.02205 34493 ft 461 kts 232°
2026-04-15 21:29 33.77393 -63.05162 34256 ft 462 kts 232°
2026-04-15 21:29 33.75321 -63.08128 33991 ft 463 kts 232°
2026-04-15 21:30 33.73246 -63.11091 33726 ft 464 kts 232°
2026-04-15 21:30 33.71163 -63.14057 33455 ft 465 kts 232°
2026-04-15 21:30 33.69075 -63.17031 33195 ft 466 kts 232°
2026-04-15 21:30 33.66985 -63.20012 32930 ft 467 kts 232°
2026-04-15 21:31 33.62774 -63.25995 32421 ft 470 kts 232°
2026-04-15 21:31 33.60659 -63.29001 32163 ft 471 kts 232°
2026-04-15 21:32 33.56427 -63.35026 31679 ft 473 kts 232°
2026-04-15 21:32 33.54304 -63.38050 31432 ft 475 kts 232°
2026-04-15 21:32 33.52172 -63.41076 31190 ft 476 kts 232°
2026-04-15 21:32 33.50029 -63.44104 30945 ft 477 kts 232°
2026-04-15 21:33 33.47878 -63.47133 30701 ft 478 kts 232°
2026-04-15 21:33 33.45723 -63.50169 30466 ft 479 kts 232°
2026-04-15 21:33 33.43560 -63.53218 30204 ft 480 kts 232°
2026-04-15 21:33 33.41398 -63.56268 29938 ft 481 kts 232°
2026-04-15 21:34 33.39234 -63.59320 29670 ft 481 kts 232°
2026-04-15 21:34 33.37068 -63.62375 29393 ft 482 kts 232°
2026-04-15 21:34 33.34900 -63.65430 29126 ft 482 kts 232°
2026-04-15 21:34 33.33466 -63.67454 28947 ft 482 kts 232°
2026-04-15 21:35 33.31300 -63.70517 28672 ft 483 kts 232°
2026-04-15 21:35 33.29128 -63.73579 28418 ft 483 kts 232°
2026-04-15 21:35 33.26950 -63.76638 28163 ft 484 kts 232°
2026-04-15 21:35 33.24051 -63.80694 27815 ft 484 kts 232°
2026-04-15 21:36 33.21865 -63.83752 27563 ft 484 kts 231°
2026-04-15 21:36 33.20388 -63.85816 27395 ft 484 kts 231°
2026-04-15 21:36 33.18200 -63.88876 27143 ft 485 kts 231°
2026-04-15 21:36 33.16005 -63.91942 26897 ft 485 kts 231°
2026-04-15 21:37 33.13812 -63.95003 26656 ft 485 kts 231°
2026-04-15 21:37 33.11642 -63.98029 26414 ft 486 kts 231°
2026-04-15 21:37 33.09442 -64.01090 26170 ft 486 kts 231°
2026-04-15 21:37 33.07239 -64.04151 25932 ft 487 kts 231°
2026-04-15 21:38 33.05036 -64.07217 25693 ft 487 kts 231°
2026-04-15 21:38 33.02831 -64.10287 25115 ft 485 kts 231°
2026-04-15 21:38 33.00648 -64.13321 23951 ft 479 kts 231°
2026-04-15 21:38 32.98488 -64.16317 22636 ft 474 kts 231°
2026-04-15 21:39 32.96344 -64.19286 21363 ft 470 kts 231°
2026-04-15 21:39 32.94235 -64.22209 20324 ft 462 kts 231°
2026-04-15 21:39 32.92157 -64.25087 19331 ft 453 kts 231°
2026-04-15 21:39 32.90118 -64.27909 18310 ft 446 kts 231°
2026-04-15 21:40 32.88110 -64.30684 17208 ft 439 kts 231°
2026-04-15 21:40 32.86125 -64.33426 16192 ft 433 kts 231°
2026-04-15 21:40 32.84176 -64.36116 15271 ft 426 kts 230°
2026-04-15 21:40 32.82263 -64.38755 14261 ft 414 kts 230°
2026-04-15 21:41 32.80413 -64.41300 13163 ft 400 kts 230°
2026-04-15 21:41 32.78651 -64.43723 12127 ft 385 kts 230°
2026-04-15 21:41 32.76923 -64.46099 11401 ft 363 kts 230°
2026-04-15 21:41 32.75362 -64.48246 11233 ft 331 kts 230°
2026-04-15 21:42 32.73918 -64.50229 11101 ft 304 kts 230°
2026-04-15 21:42 32.72588 -64.52052 10982 ft 280 kts 230°
2026-04-15 21:42 32.71358 -64.53736 10853 ft 262 kts 230°
2026-04-15 21:42 32.70184 -64.55347 10748 ft 258 kts 230°
2026-04-15 21:43 32.68961 -64.57027 10616 ft 268 kts 230°
2026-04-15 21:43 32.67767 -64.58667 10502 ft 257 kts 231°
2026-04-15 21:43 32.66607 -64.60260 10391 ft 254 kts 230°
2026-04-15 21:43 32.65452 -64.61846 10284 ft 254 kts 230°
2026-04-15 21:44 32.64298 -64.63429 10167 ft 253 kts 230°
2026-04-15 21:44 32.63149 -64.65005 10050 ft 251 kts 231°
2026-04-15 21:44 32.61998 -64.66583 9672 ft 257 kts 230°
2026-04-15 21:44 32.60818 -64.68199 9119 ft 261 kts 230°
2026-04-15 21:45 32.59623 -64.69833 8597 ft 264 kts 229°
2026-04-15 21:45 32.58427 -64.71466 8065 ft 267 kts 229°
2026-04-15 21:45 32.57205 -64.73136 7527 ft 270 kts 229°
2026-04-15 21:45 32.55970 -64.74823 6981 ft 272 kts 229°
2026-04-15 21:46 32.54724 -64.76520 6409 ft 274 kts 229°
2026-04-15 21:46 32.53471 -64.78229 5855 ft 275 kts 228°
2026-04-15 21:46 32.52229 -64.79927 5581 ft 265 kts 228°
2026-04-15 21:46 32.51058 -64.81525 5518 ft 248 kts 228°
2026-04-15 21:47 32.49959 -64.83020 5426 ft 236 kts 228°
2026-04-15 21:47 32.48880 -64.84470 5329 ft 231 kts 225°
2026-04-15 21:47 32.47621 -64.85560 5223 ft 219 kts 206°
2026-04-15 21:47 32.46186 -64.86128 4865 ft 220 kts 190°
2026-04-15 21:48 32.44672 -64.86483 4498 ft 222 kts 190°
2026-04-15 21:48 32.43161 -64.86850 4147 ft 222 kts 190°
2026-04-15 21:48 32.41667 -64.87203 3802 ft 215 kts 186°
2026-04-15 21:48 32.40267 -64.86891 3482 ft 204 kts 144°
2026-04-15 21:49 32.39461 -64.85587 3174 ft 199 kts 105°
2026-04-15 21:49 32.39250 -64.83967 2855 ft 199 kts 98°
2026-04-15 21:49 32.38993 -64.82382 2558 ft 192 kts 101°
2026-04-15 21:49 32.38717 -64.80887 2254 ft 181 kts 101°
2026-04-15 21:50 32.38454 -64.79473 1995 ft 172 kts 101°
2026-04-15 21:50 32.38206 -64.78110 1735 ft 166 kts 100°
2026-04-15 21:50 32.37973 -64.76825 1496 ft 157 kts 101°
2026-04-15 21:50 32.37751 -64.75607 1273 ft 146 kts 99°
2026-04-15 21:51 32.37551 -64.74501 1065 ft 127 kts 99°
2026-04-15 21:51 32.37379 -64.73543 885 ft 116 kts 99°
2026-04-15 21:51 32.37220 -64.72636 720 ft 110 kts 98°
2026-04-15 21:51 32.37064 -64.71743 547 ft 111 kts 98°
2026-04-15 21:52 32.36908 -64.70850 386 ft 110 kts 96°
2026-04-15 21:52 32.36766 -64.69969 196 ft 109 kts 97°
2026-04-15 21:52 32.36616 -64.69095 34 ft 106 kts 98°
2026-04-15 21:52 32.36505 -64.68457 23 ft 39 kts 102°
2026-04-15 21:53 32.36463 -64.68215 23 ft 27 kts 102°
2026-04-15 21:53 32.36428 -64.68013 24 ft 26 kts 101°
2026-04-15 21:53 32.36404 -64.67850 20 ft 14 kts 80°
2026-04-15 21:53 32.36492 -64.67813 29 ft 16 kts 13°
2026-04-15 21:54 32.36550 -64.67891 27 ft 16 kts 282°
2026-04-15 21:54 32.36580 -64.68068 27 ft 27 kts 282°
2026-04-15 21:54 32.36620 -64.68299 28 ft 30 kts 282°
2026-04-15 21:54 32.36664 -64.68555 27 ft 33 kts 281°
2026-04-15 21:55 32.36709 -64.68815 27 ft 21 kts 282°
2026-04-15 21:55 32.36682 -64.68990 27 ft 25 kts 246°
2026-04-15 21:55 32.36606 -64.69201 22 ft 30 kts 247°
2026-04-15 21:55 32.36527 -64.69427 27 ft 31 kts 247°
2026-04-15 21:56 32.36440 -64.69670 29 ft 33 kts 247°
2026-04-15 21:56 32.36356 -64.69908 29 ft 23 kts 247°
2026-04-15 21:56 32.36265 -64.70036 29 ft 22 kts 215°
2026-04-15 21:56 32.36194 -64.70046 29 ft 11 kts 154°
2026-04-15 21:57 32.36141 -64.70014 30 ft 2 kts 152°
2026-04-15 21:57 32.36138 -64.70011 30 ft 0 kts 152°